M I D A S
Marine Information and Data Acquisition System
Tripno 1653 of the Zeeleeuw from 2009-03-04 08:25:30 to 2009-03-04 17:20:54
Back to CruiseResearch ActivitiesStationsMapUnderway DataData graphs

EquipmentUnitsComment
TimeDGPSUTC
LatitudeDGPSDM.mWGS84
LongitudeDGPSDM.mWGS84
TemperatureSBE03/SBE38deg celciusITS90
ConductivitySBE21S/mITS90
SalinitySBE21 Practical Salinity Units
ChlorophylAChelsea fluorimeterg/lCalibrated in Aceton
Missing or incorrect values are displayed as -999
Sea surface data collected by the RV Zeeleeuw from 2009-03-04 08:07:23 to 2009-03-04 17:24:59
                                                                                    Next 1000 lines
Time Latitude Longitude Temperature Conductivity Salinity ChlorophylA
2009-03-04 08:07:33 51°13.663 2°55.959 -999 0.060011 0.348336 -1.279161
2009-03-04 08:07:38 51°13.663 2°55.959 -999 0.060011 0.348343 -1.279161
2009-03-04 08:07:43 51°13.664 2°55.959 -999 0.060011 0.348343 -1.279161
2009-03-04 08:07:48 51°13.664 2°55.959 -999 0.060011 0.348357 -1.279161
2009-03-04 08:07:53 51°13.664 2°55.959 -999 0.060011 0.348363 -1.279161
2009-03-04 08:07:58 51°13.664 2°55.959 -999 0.060011 0.34837 -1.279161
2009-03-04 08:08:03 51°13.664 2°55.959 -999 0.060011 0.348383 -1.279161
2009-03-04 08:08:08 51°13.663 2°55.959 -999 0.060011 0.34839 -1.279161
2009-03-04 08:08:14 51°13.663 2°55.959 -999 0.060011 0.34839 -1.279161
2009-03-04 08:08:18 51°13.663 2°55.959 -999 0.060011 0.348397 -1.279161
2009-03-04 08:08:23 51°13.663 2°55.959 -999 0.060011 0.348403 -1.279161
2009-03-04 08:08:28 51°13.663 2°55.959 -999 0.060011 0.34841 -1.279161
2009-03-04 08:08:33 51°13.663 2°55.959 -999 0.060011 0.34841 -1.279161
2009-03-04 08:08:38 51°13.664 2°55.96 -999 0.060011 0.348417 -1.279161
2009-03-04 08:08:42 51°13.664 2°55.96 -999 0.060011 0.348417 -1.279161
2009-03-04 08:08:47 51°13.663 2°55.959 -999 0.060011 0.348423 -1.279161
2009-03-04 08:08:52 51°13.663 2°55.959 -999 0.060011 0.34843 -1.279161
2009-03-04 08:08:58 51°13.664 2°55.959 -999 0.060011 0.348443 -1.279161
2009-03-04 08:09:03 51°13.664 2°55.959 -999 0.060011 0.348443 -1.279161
2009-03-04 08:09:08 51°13.664 2°55.959 -999 0.059909 0.347833 -1.279161
2009-03-04 08:09:14 51°13.664 2°55.959 -999 0.059909 0.347833 -1.279161
2009-03-04 08:09:18 51°13.664 2°55.959 -999 0.060011 0.348463 -1.279161
2009-03-04 08:09:23 51°13.664 2°55.959 -999 0.059909 0.347853 -1.244337
2009-03-04 08:09:28 51°13.664 2°55.959 -999 0.059909 0.34786 -1.279161
2009-03-04 08:09:33 51°13.664 2°55.959 -999 0.059909 0.347867 -1.279161
2009-03-04 08:09:38 51°13.664 2°55.958 -999 0.059909 0.347873 -1.279161
2009-03-04 08:09:43 51°13.664 2°55.958 -999 0.059909 0.347873 -1.279161
2009-03-04 08:09:49 51°13.664 2°55.958 -999 0.059909 0.34788 -1.279161
2009-03-04 08:09:53 51°13.663 2°55.958 -999 0.059909 0.347887 -1.244337
2009-03-04 08:09:58 51°13.664 2°55.958 -999 0.059909 0.347893 -1.279161
2009-03-04 08:10:03 51°13.664 2°55.959 -999 0.059909 0.3479 -1.279161
2009-03-04 08:10:08 51°13.664 2°55.959 -999 0.059909 0.347907 -1.279161
2009-03-04 08:10:13 51°13.664 2°55.959 -999 0.059909 0.347907 -1.279161
2009-03-04 08:10:18 51°13.664 2°55.959 -999 0.059909 0.347913 -1.279161
2009-03-04 08:10:23 51°13.664 2°55.959 -999 0.059909 0.34792 -1.279161
2009-03-04 08:10:29 51°13.664 2°55.959 -999 0.059909 0.347927 -1.279161
2009-03-04 08:10:33 51°13.664 2°55.959 -999 0.059909 0.347933 -1.279161
2009-03-04 08:10:38 51°13.664 2°55.959 -999 0.059909 0.34794 -1.279161
2009-03-04 08:10:42 51°13.664 2°55.959 -999 0.059909 0.34794 -1.279161
2009-03-04 08:10:48 51°13.664 2°55.959 -999 0.059909 0.347947 -1.244337
2009-03-04 08:10:53 51°13.664 2°55.959 -999 0.059909 0.347954 -1.279161
2009-03-04 08:10:58 51°13.664 2°55.959 -999 0.059909 0.34796 -1.279161
2009-03-04 08:11:03 51°13.664 2°55.959 -999 0.059909 0.347967 -1.279161
2009-03-04 08:11:08 51°13.664 2°55.959 -999 0.059909 0.347974 -1.279161
2009-03-04 08:11:14 51°13.664 2°55.959 -999 0.059909 0.347974 -1.279161
2009-03-04 08:11:18 51°13.664 2°55.959 -999 0.059909 0.347987 -1.279161
2009-03-04 08:11:23 51°13.664 2°55.959 -999 0.059909 0.347987 -1.279161
2009-03-04 08:11:28 51°13.664 2°55.959 -999 0.059909 0.347994 -1.279161
2009-03-04 08:11:33 51°13.664 2°55.959 -999 0.059909 0.348 -1.279161
2009-03-04 08:11:38 51°13.664 2°55.959 -999 0.059909 0.348014 -1.244337
2009-03-04 08:11:43 51°13.664 2°55.959 -999 0.059909 0.348014 -1.244337
2009-03-04 08:11:48 51°13.664 2°55.959 -999 0.059909 0.34802 -1.279161
2009-03-04 08:11:53 51°13.663 2°55.958 -999 0.059909 0.348027 -1.244337
2009-03-04 08:11:58 51°13.664 2°55.959 -999 0.059909 0.348034 -1.279161
2009-03-04 08:12:03 51°13.664 2°55.959 -999 0.059909 0.34804 -1.279161
2009-03-04 08:12:08 51°13.664 2°55.959 -999 0.059909 0.348047 -1.279161
2009-03-04 08:12:13 51°13.664 2°55.959 -999 0.059909 0.348047 -1.279161
2009-03-04 08:12:18 51°13.664 2°55.959 -999 0.059909 0.348054 -1.279161
2009-03-04 08:12:22 51°13.664 2°55.959 -999 0.059909 0.34806 -1.279161
2009-03-04 08:12:27 51°13.663 2°55.959 -999 0.059909 0.348067 -1.279161
2009-03-04 08:12:32 51°13.663 2°55.959 -999 0.059909 0.348074 -1.279161
2009-03-04 08:12:37 51°13.663 2°55.959 -999 0.059909 0.34808 -1.244337
2009-03-04 08:12:42 51°13.663 2°55.959 -999 0.059909 0.34808 -1.244337
2009-03-04 08:12:47 51°13.663 2°55.959 -999 0.059909 0.348087 -1.279161
2009-03-04 08:12:52 51°13.663 2°55.959 -999 0.059909 0.3481 -1.244337
2009-03-04 08:12:58 51°13.663 2°55.959 -999 0.059909 0.3481 -1.279161
2009-03-04 08:13:03 51°13.663 2°55.959 -999 0.059909 0.348114 -1.244337
2009-03-04 08:13:09 51°13.663 2°55.959 -999 0.059909 0.348114 -1.279161
2009-03-04 08:13:13 51°13.663 2°55.959 -999 0.059909 0.348114 -1.279161
2009-03-04 08:13:18 51°13.663 2°55.959 -999 0.059909 0.348127 -1.279161
2009-03-04 08:13:23 51°13.663 2°55.959 -999 0.059909 0.348134 -1.244337
2009-03-04 08:13:28 51°13.661 2°55.959 -999 0.059909 0.348141 -1.244337
2009-03-04 08:13:34 51°13.661 2°55.959 -999 0.059909 0.348147 -1.279161
2009-03-04 08:13:38 51°13.661 2°55.959 -999 0.059909 0.348154 -1.244337
2009-03-04 08:13:43 51°13.661 2°55.959 -999 0.059909 0.348154 -1.244337
2009-03-04 08:13:48 51°13.661 2°55.959 -999 0.059909 0.348161 -1.279161
2009-03-04 08:13:53 51°13.662 2°55.959 -999 0.059909 0.348167 -1.244337
2009-03-04 08:13:58 51°13.662 2°55.959 -999 0.059909 0.348174 -1.279161
2009-03-04 08:14:02 51°13.663 2°55.959 -999 0.059909 0.348181 -1.279161
2009-03-04 08:14:07 51°13.664 2°55.959 -999 0.059909 0.348187 -1.279161
2009-03-04 08:14:12 51°13.664 2°55.96 -999 0.059909 0.348187 -1.279161
2009-03-04 08:14:18 51°13.664 2°55.96 -999 0.059909 0.348201 -1.279161
2009-03-04 08:14:22 51°13.664 2°55.96 -999 0.059909 0.348207 -1.279161
2009-03-04 08:14:28 51°13.664 2°55.959 -999 0.059909 0.348214 -1.279161
2009-03-04 08:14:33 51°13.664 2°55.959 -999 0.059909 0.348221 -1.244337
2009-03-04 08:14:38 51°13.664 2°55.96 -999 0.059909 0.348228 -1.279161
2009-03-04 08:14:43 51°13.664 2°55.96 -999 0.059909 0.348228 -1.279161
2009-03-04 08:14:48 51°13.664 2°55.96 -999 0.059909 0.348234 -1.244337
2009-03-04 08:14:53 51°13.664 2°55.96 -999 0.059909 0.348241 -1.244337
2009-03-04 08:14:58 51°13.664 2°55.96 -999 0.059909 0.348248 -1.244337
2009-03-04 08:15:03 51°13.665 2°55.96 -999 0.059909 0.348254 -1.244337
2009-03-04 08:15:07 51°13.665 2°55.96 -999 0.059909 0.348261 -1.279161
2009-03-04 08:15:12 51°13.665 2°55.96 -999 0.059909 0.348261 -1.279161
2009-03-04 08:15:17 51°13.665 2°55.96 -999 0.059909 0.348274 -1.244337
2009-03-04 08:15:22 51°13.665 2°55.96 -999 0.059909 0.348281 -1.279161
2009-03-04 08:15:27 51°13.665 2°55.96 -999 0.059909 0.348288 -1.279161
2009-03-04 08:15:32 51°13.665 2°55.959 -999 0.059909 0.348294 -1.244337
2009-03-04 08:15:37 51°13.665 2°55.959 -999 0.059909 0.348301 -1.244337
2009-03-04 08:15:41 51°13.665 2°55.959 -999 0.059909 0.348301 -1.244337
2009-03-04 08:15:46 51°13.665 2°55.959 -999 0.059909 0.348315 -1.279161
2009-03-04 08:15:51 51°13.665 2°55.959 -999 0.059909 0.348315 -1.244337
2009-03-04 08:15:56 51°13.665 2°55.959 -999 0.059909 0.348321 -1.244337
2009-03-04 08:16:01 51°13.665 2°55.959 -999 0.059909 0.348335 -1.244337
2009-03-04 08:16:06 51°13.664 2°55.959 -999 0.059909 0.348335 -1.279161
2009-03-04 08:16:11 51°13.664 2°55.96 -999 0.059909 0.348335 -1.279161
2009-03-04 08:16:16 51°13.664 2°55.959 -999 0.059909 0.348348 -1.279161
2009-03-04 08:16:22 51°13.664 2°55.959 -999 0.059909 0.348355 -1.279161
2009-03-04 08:16:27 51°13.664 2°55.959 -999 0.059909 0.348361 -1.244337
2009-03-04 08:16:32 51°13.664 2°55.959 -999 0.059909 0.348368 -1.279161
2009-03-04 08:16:37 51°13.664 2°55.959 -999 0.059909 0.348375 -1.244337
2009-03-04 08:16:42 51°13.664 2°55.959 -999 0.059909 0.348375 -1.244337
2009-03-04 08:16:47 51°13.664 2°55.959 -999 0.059909 0.348388 -1.244337
2009-03-04 08:16:51 51°13.664 2°55.959 -999 0.059909 0.348395 -1.244337
2009-03-04 08:16:56 51°13.664 2°55.959 -999 0.059909 0.348402 -1.279161
2009-03-04 08:17:02 51°13.664 2°55.959 -999 0.059909 0.348408 -1.279161
2009-03-04 08:17:07 51°13.664 2°55.959 -999 0.059909 0.348415 -1.279161
2009-03-04 08:17:13 51°13.664 2°55.959 -999 0.059909 0.348415 -1.279161
2009-03-04 08:17:18 51°13.664 2°55.959 -999 0.059909 0.348422 -1.244337
2009-03-04 08:17:23 51°13.664 2°55.959 -999 0.059909 0.348428 -1.279161
2009-03-04 08:17:28 51°13.664 2°55.959 -999 0.059909 0.348435 -1.279161
2009-03-04 08:17:33 51°13.664 2°55.959 -999 0.059909 0.348442 -1.244337
2009-03-04 08:17:38 51°13.664 2°55.959 -999 0.059909 0.348448 -1.244337
2009-03-04 08:17:42 51°13.664 2°55.959 -999 0.059909 0.348448 -1.244337
2009-03-04 08:17:47 51°13.664 2°55.959 -999 0.059909 0.348455 -1.279161
2009-03-04 08:17:52 51°13.664 2°55.959 -999 0.059909 0.348469 -1.279161
2009-03-04 08:17:57 51°13.664 2°55.959 -999 0.059909 0.348475 -1.244337
2009-03-04 08:18:02 51°13.664 2°55.959 -999 0.059909 0.348482 -1.244337
2009-03-04 08:18:07 51°13.664 2°55.959 -999 0.059909 0.348489 -1.244337
2009-03-04 08:18:11 51°13.664 2°55.959 -999 0.059909 0.348489 -1.244337
2009-03-04 08:18:16 51°13.664 2°55.959 -999 0.059909 0.348495 -1.279161
2009-03-04 08:18:21 51°13.664 2°55.959 -999 0.059909 0.348502 -1.244337
2009-03-04 08:18:26 51°13.664 2°55.959 -999 0.059909 0.348515 -1.279161
2009-03-04 08:18:31 51°13.664 2°55.959 -999 0.059909 0.348515 -1.244337
2009-03-04 08:18:36 51°13.664 2°55.959 -999 0.059909 0.348529 -1.279161
2009-03-04 08:18:41 51°13.664 2°55.959 -999 0.059909 0.348529 -1.279161
2009-03-04 08:18:47 51°13.664 2°55.959 -999 0.059909 0.348536 -1.244337
2009-03-04 08:18:52 51°13.664 2°55.959 -999 0.059909 0.348542 -1.279161
2009-03-04 08:18:58 51°13.664 2°55.959 -999 0.059909 0.348549 -1.244337
2009-03-04 08:19:03 51°13.664 2°55.959 -999 0.059909 0.348556 -1.244337
2009-03-04 08:19:08 51°13.664 2°55.959 -999 0.059909 0.348562 -1.244337
2009-03-04 08:19:13 51°13.664 2°55.96 -999 0.059909 0.348562 -1.244337
2009-03-04 08:19:18 51°13.664 2°55.96 -999 0.059909 0.348569 -1.279161
2009-03-04 08:19:23 51°13.664 2°55.96 -999 0.059909 0.348583 -1.244337
2009-03-04 08:19:28 51°13.664 2°55.96 -999 0.059909 0.348589 -1.244337
2009-03-04 08:19:33 51°13.664 2°55.96 -999 0.059909 0.348596 -1.244337
2009-03-04 08:19:38 51°13.663 2°55.959 -999 0.059909 0.348603 -1.279161
2009-03-04 08:19:43 51°13.663 2°55.959 -999 0.059909 0.348603 -1.279161
2009-03-04 08:19:48 51°13.663 2°55.959 -999 0.059909 0.348609 -1.279161
2009-03-04 08:19:52 51°13.663 2°55.959 -999 0.059909 0.348616 -1.244337
2009-03-04 08:19:58 51°13.663 2°55.959 -999 0.059909 0.348623 -1.279161
2009-03-04 08:20:03 51°13.663 2°55.959 -999 0.059909 0.348629 -1.279161
2009-03-04 08:20:08 51°13.663 2°55.959 -999 0.059909 0.348636 -1.244337
2009-03-04 08:20:13 51°13.663 2°55.959 -999 0.059909 0.348636 -1.244337
2009-03-04 08:20:18 51°13.663 2°55.959 -999 0.059909 0.348643 -1.279161
2009-03-04 08:20:23 51°13.664 2°55.959 -999 0.059909 0.348656 -1.244337
2009-03-04 08:20:28 51°13.664 2°55.959 -999 0.059909 0.348663 -1.279161
2009-03-04 08:20:33 51°13.664 2°55.959 -999 0.059909 0.34867 -1.279161
2009-03-04 08:20:38 51°13.664 2°55.959 -999 0.059806 0.348058 -1.279161
2009-03-04 08:20:43 51°13.664 2°55.959 -999 0.059806 0.348058 -1.279161
2009-03-04 08:20:48 51°13.664 2°55.959 -999 0.059909 0.348683 -1.244337
2009-03-04 08:20:53 51°13.664 2°55.959 -999 0.059806 0.348072 -1.244337
2009-03-04 08:20:58 51°13.664 2°55.959 -999 0.059806 0.348078 -1.244337
2009-03-04 08:21:03 51°13.664 2°55.959 -999 0.059806 0.348085 -1.244337
2009-03-04 08:21:08 51°13.664 2°55.959 -999 0.059909 0.34871 -1.244337
2009-03-04 08:21:12 51°13.664 2°55.959 -999 0.059909 0.34871 -1.244337
2009-03-04 08:21:17 51°13.664 2°55.959 -999 0.059806 0.348098 -1.279161
2009-03-04 08:21:22 51°13.664 2°55.959 -999 0.059806 0.348105 -1.244337
2009-03-04 08:21:27 51°13.663 2°55.959 -999 0.059806 0.348112 -1.244337
2009-03-04 08:21:33 51°13.664 2°55.959 -999 0.059806 0.348125 -1.244337
2009-03-04 08:21:38 51°13.663 2°55.959 -999 0.059806 0.348125 -1.244337
2009-03-04 08:21:43 51°13.663 2°55.959 -999 0.059806 0.348125 -1.244337
2009-03-04 08:21:48 51°13.663 2°55.959 -999 0.059806 0.348139 -1.244337
2009-03-04 08:21:52 51°13.663 2°55.96 -999 0.059806 0.348145 -1.244337
2009-03-04 08:21:57 51°13.663 2°55.96 -999 0.059806 0.348152 -1.244337
2009-03-04 08:22:02 51°13.663 2°55.96 -999 0.059806 0.348159 -1.279161
2009-03-04 08:22:07 51°13.663 2°55.96 -999 0.059806 0.348165 -1.244337
2009-03-04 08:22:12 51°13.663 2°55.96 -999 0.059806 0.348165 -1.244337
2009-03-04 08:22:18 51°13.663 2°55.96 -999 0.059806 0.348172 -1.244337
2009-03-04 08:22:23 51°13.663 2°55.96 -999 0.059806 0.348179 -1.244337
2009-03-04 08:22:28 51°13.663 2°55.96 -999 0.059806 0.348186 -1.244337
2009-03-04 08:22:33 51°13.663 2°55.96 -999 0.059806 0.348192 -1.244337
2009-03-04 08:22:38 51°13.663 2°55.96 -999 0.059806 0.348199 -1.244337
2009-03-04 08:22:43 51°13.663 2°55.96 -999 0.059806 0.348199 -1.244337
2009-03-04 08:22:48 51°13.663 2°55.96 -999 0.059806 0.348212 -1.279161
2009-03-04 08:22:52 51°13.663 2°55.96 -999 0.059806 0.348212 -1.244337
2009-03-04 08:22:58 51°13.663 2°55.96 -999 0.059806 0.348226 -1.244337
2009-03-04 08:23:02 51°13.663 2°55.96 -999 0.059806 0.348232 -1.244337
2009-03-04 08:23:07 51°13.663 2°55.96 -999 0.059806 0.348239 -1.244337
2009-03-04 08:23:12 51°13.663 2°55.96 -999 0.059806 0.348239 -1.244337
2009-03-04 08:23:17 51°13.663 2°55.96 -999 0.059806 0.348246 -1.244337
2009-03-04 08:23:22 51°13.663 2°55.96 -999 0.059806 0.348253 -1.244337
2009-03-04 08:23:27 51°13.663 2°55.96 -999 0.059806 0.348259 -1.244337
2009-03-04 08:23:32 51°13.663 2°55.96 -999 0.059806 0.348266 -1.279161
2009-03-04 08:23:38 51°13.663 2°55.959 -999 0.059806 0.348273 -1.244337
2009-03-04 08:23:43 51°13.663 2°55.959 -999 0.059806 0.348273 -1.244337
2009-03-04 08:23:48 51°13.663 2°55.959 -999 0.059806 0.348279 -1.244337
2009-03-04 08:23:52 51°13.663 2°55.959 -999 0.059806 0.348286 -1.244337
2009-03-04 08:23:57 51°13.662 2°55.96 -999 0.059806 0.348293 -1.279161
2009-03-04 08:24:02 51°13.662 2°55.96 -999 0.059806 0.348306 -1.244337
2009-03-04 08:24:08 51°13.662 2°55.96 -999 0.059806 0.348313 -1.279161
2009-03-04 08:24:12 51°13.662 2°55.96 -999 0.059806 0.348313 -1.279161
2009-03-04 08:24:18 51°13.662 2°55.96 -999 0.059806 0.34832 -1.279161
2009-03-04 08:24:23 51°13.662 2°55.959 -999 0.059806 0.348326 -1.279161
2009-03-04 08:24:28 51°13.662 2°55.959 -999 0.059806 0.348333 -1.279161
2009-03-04 08:24:33 51°13.662 2°55.959 -999 0.059806 0.34834 -1.244337
2009-03-04 08:24:38 51°13.662 2°55.959 -999 0.059806 0.34834 -1.244337
2009-03-04 08:24:43 51°13.662 2°55.959 -999 0.059806 0.34834 -1.244337
2009-03-04 08:24:48 51°13.662 2°55.959 -999 0.059806 0.348353 -1.279161
2009-03-04 08:24:53 51°13.662 2°55.959 -999 0.059806 0.34836 -1.279161
2009-03-04 08:24:58 51°13.662 2°55.959 -999 0.059806 0.348367 -1.244337
2009-03-04 08:25:03 51°13.662 2°55.959 -999 0.059806 0.348373 -1.244337
2009-03-04 08:25:08 51°13.662 2°55.96 -999 0.059806 0.34838 -1.244337
2009-03-04 08:25:12 51°13.662 2°55.96 -999 0.059806 0.34838 -1.244337
2009-03-04 08:25:18 51°13.662 2°55.96 -999 0.059806 0.348393 -1.244337
2009-03-04 08:25:22 51°13.662 2°55.96 -999 0.059806 0.3484 -1.244337
2009-03-04 08:25:27 51°13.662 2°55.96 -999 0.059806 0.348407 -1.244337
2009-03-04 08:25:32 51°13.662 2°55.96 -999 0.059806 0.348414 -1.244337
2009-03-04 08:25:38 51°13.662 2°55.96 -999 0.059806 0.34842 -1.244337
2009-03-04 08:25:42 51°13.662 2°55.96 -999 0.059806 0.34842 -1.244337
2009-03-04 08:25:47 51°13.662 2°55.96 -999 0.059806 0.348427 -1.279161
2009-03-04 08:25:52 51°13.662 2°55.96 -999 0.059806 0.348427 -1.244337
2009-03-04 08:25:56 51°13.662 2°55.96 -999 0.059806 0.348434 -1.244337
2009-03-04 08:26:01 51°13.662 2°55.96 -999 0.059806 0.34844 -1.244337
2009-03-04 08:26:07 51°13.662 2°55.96 -999 0.059806 0.348447 -1.244337
2009-03-04 08:26:11 51°13.662 2°55.96 -999 0.059806 0.348447 -1.244337
2009-03-04 08:26:16 51°13.662 2°55.96 -999 0.059806 0.348454 -1.244337
2009-03-04 08:26:21 51°13.661 2°55.96 -999 0.059806 0.348467 -1.244337
2009-03-04 08:26:26 51°13.661 2°55.96 -999 0.059806 0.348467 -1.279161
2009-03-04 08:26:31 51°13.661 2°55.959 -999 0.059806 0.348474 -1.244337
2009-03-04 08:26:36 51°13.661 2°55.959 -999 0.059806 0.348481 -1.244337
2009-03-04 08:26:42 51°13.661 2°55.959 -999 0.059806 0.348481 -1.244337
2009-03-04 08:26:47 51°13.661 2°55.959 -999 0.059806 0.348488 -1.244337
2009-03-04 08:26:52 51°13.661 2°55.959 -999 0.059806 0.348494 -1.244337
2009-03-04 08:26:57 51°13.661 2°55.959 -999 0.059806 0.348501 -1.279161
2009-03-04 08:27:02 51°13.661 2°55.958 -999 0.059806 0.348508 -1.244337
2009-03-04 08:27:07 51°13.662 2°55.957 -999 0.059806 0.348508 -1.244337
2009-03-04 08:27:12 51°13.662 2°55.954 -999 0.059806 0.348508 -1.244337
2009-03-04 08:27:17 51°13.663 2°55.951 -999 0.059806 0.348514 -1.244337
2009-03-04 08:27:22 51°13.664 2°55.946 -999 0.059806 0.348514 -1.244337
2009-03-04 08:27:27 51°13.666 2°55.942 -999 0.059806 0.348521 -1.244337
2009-03-04 08:27:32 51°13.667 2°55.937 -999 0.059806 0.348528 -1.244337
2009-03-04 08:27:38 51°13.669 2°55.93 -999 0.059806 0.348541 -1.244337
2009-03-04 08:27:43 51°13.671 2°55.924 -999 0.059806 0.348541 -1.244337
2009-03-04 08:27:48 51°13.672 2°55.918 -999 0.059806 0.348548 -1.244337
2009-03-04 08:27:53 51°13.674 2°55.912 -999 0.059806 0.348555 -1.244337
2009-03-04 08:27:58 51°13.675 2°55.906 -999 0.059806 0.348568 -1.244337
2009-03-04 08:28:03 51°13.676 2°55.9 -999 0.059806 0.348575 -1.244337
2009-03-04 08:28:08 51°13.677 2°55.896 -999 0.059806 0.348582 -1.244337
2009-03-04 08:28:13 51°13.677 2°55.893 -999 0.059806 0.348582 -1.244337
2009-03-04 08:28:18 51°13.678 2°55.891 -999 0.059806 0.348595 -1.244337
2009-03-04 08:28:23 51°13.679 2°55.888 -999 0.059806 0.348595 -1.244337
2009-03-04 08:28:28 51°13.679 2°55.886 -999 0.059806 0.348602 -1.244337
2009-03-04 08:28:33 51°13.68 2°55.883 -999 0.059806 0.348608 -1.244337
2009-03-04 08:28:38 51°13.681 2°55.879 -999 0.059806 0.348615 -1.279161
2009-03-04 08:28:42 51°13.681 2°55.876 -999 0.059806 0.348615 -1.279161
2009-03-04 08:28:47 51°13.682 2°55.871 -999 0.059806 0.348622 -1.244337
2009-03-04 08:28:52 51°13.683 2°55.867 -999 0.059806 0.348629 -1.244337
2009-03-04 08:28:57 51°13.683 2°55.862 -999 0.059806 0.348635 -1.244337
2009-03-04 08:29:03 51°13.684 2°55.855 -999 0.059806 0.348642 -1.244337
2009-03-04 08:29:08 51°13.684 2°55.85 -999 0.059806 0.348642 -1.244337
2009-03-04 08:29:13 51°13.684 2°55.844 -999 0.059806 0.348642 -1.244337
2009-03-04 08:29:18 51°13.685 2°55.838 -999 0.059806 0.348649 -1.244337
2009-03-04 08:29:23 51°13.685 2°55.832 -999 0.059806 0.348656 -1.244337
2009-03-04 08:29:28 51°13.685 2°55.825 -999 0.059806 0.348662 -1.279161
2009-03-04 08:29:33 51°13.684 2°55.818 -999 0.059806 0.348669 -1.244337
2009-03-04 08:29:38 51°13.684 2°55.812 -999 0.059806 0.348676 -1.244337
2009-03-04 08:29:43 51°13.684 2°55.806 -999 0.059806 0.348676 -1.244337
2009-03-04 08:29:48 51°13.683 2°55.8 -999 0.059806 0.348689 -1.244337
2009-03-04 08:29:53 51°13.683 2°55.794 -999 0.059806 0.348689 -1.244337
2009-03-04 08:29:58 51°13.682 2°55.788 -999 0.059806 0.348703 -1.279161
2009-03-04 08:30:03 51°13.682 2°55.784 -999 0.059806 0.348709 -1.244337
2009-03-04 08:30:08 51°13.682 2°55.781 -999 0.059806 0.348709 -1.244337
2009-03-04 08:30:13 51°13.682 2°55.779 -999 0.059806 0.348709 -1.244337
2009-03-04 08:30:18 51°13.682 2°55.777 -999 0.059806 0.348723 -1.244337
2009-03-04 08:30:23 51°13.683 2°55.776 -999 0.059806 0.34873 -1.244337
2009-03-04 08:30:28 51°13.684 2°55.777 -999 0.059806 0.348736 -1.244337
2009-03-04 08:30:32 51°13.685 2°55.777 -999 0.059806 0.348743 -1.244337
2009-03-04 08:30:37 51°13.687 2°55.778 -999 0.059806 0.34875 -1.244337
2009-03-04 08:30:42 51°13.689 2°55.779 -999 0.059806 0.348763 -1.244337
2009-03-04 08:30:47 51°13.691 2°55.78 -999 0.059806 0.348763 -1.244337
2009-03-04 08:30:52 51°13.694 2°55.781 -999 0.059806 0.348777 -1.244337
2009-03-04 08:30:57 51°13.696 2°55.781 -999 0.059806 0.348783 -1.244337
2009-03-04 08:31:02 51°13.698 2°55.782 -999 0.059806 0.348783 -1.244337
2009-03-04 08:31:07 51°13.699 2°55.782 -999 0.059806 0.34879 -1.244337
2009-03-04 08:31:12 51°13.7 2°55.781 -999 0.059806 0.34879 -1.244337
2009-03-04 08:31:17 51°13.7 2°55.781 -999 0.059806 0.34879 -1.244337
2009-03-04 08:31:22 51°13.7 2°55.781 -999 0.059806 0.34879 -1.244337
2009-03-04 08:31:27 51°13.7 2°55.78 -999 0.059806 0.34879 -1.244337
2009-03-04 08:31:32 51°13.7 2°55.78 -999 0.059806 0.34879 -1.244337
2009-03-04 08:31:37 51°13.7 2°55.779 -999 0.059806 0.34879 -1.244337
2009-03-04 08:31:43 51°13.701 2°55.779 -999 0.059806 0.34879 -1.244337
2009-03-04 08:31:48 51°13.703 2°55.778 -999 0.059806 0.348797 -1.244337
2009-03-04 08:31:53 51°13.705 2°55.776 -999 0.059806 0.34881 -1.244337
2009-03-04 08:31:58 51°13.707 2°55.774 -999 0.059806 0.348824 -1.244337
2009-03-04 08:32:03 51°13.71 2°55.772 -999 0.059806 0.348837 -1.244337
2009-03-04 08:32:08 51°13.714 2°55.768 -999 0.059806 0.348851 -1.244337
2009-03-04 08:32:13 51°13.718 2°55.764 -999 0.059806 0.348851 -1.244337
2009-03-04 08:32:18 51°13.723 2°55.758 -999 0.059806 0.348857 -1.244337
2009-03-04 08:32:23 51°13.728 2°55.751 -999 0.059806 0.348857 -1.244337
2009-03-04 08:32:28 51°13.734 2°55.742 -999 0.059806 0.348864 -1.244337
2009-03-04 08:32:33 51°13.74 2°55.733 -999 0.059806 0.348857 -1.244337
2009-03-04 08:32:38 51°13.748 2°55.724 -999 0.059806 0.348857 -1.244337
2009-03-04 08:32:43 51°13.755 2°55.714 -999 0.059806 0.348857 -1.244337
2009-03-04 08:32:48 51°13.763 2°55.705 -999 0.059806 0.348857 -1.244337
2009-03-04 08:32:53 51°13.772 2°55.695 -999 0.059806 0.348857 -1.244337
2009-03-04 08:32:58 51°13.781 2°55.685 -999 0.059806 0.348864 -1.244337
2009-03-04 08:33:03 51°13.79 2°55.676 -999 0.059806 0.348878 -1.244337
2009-03-04 08:33:07 51°13.797 2°55.668 -999 0.059806 0.348884 -1.244337
2009-03-04 08:33:12 51°13.807 2°55.659 -999 0.059806 0.348884 -1.244337
2009-03-04 08:33:17 51°13.818 2°55.65 -999 0.059806 0.348898 -1.244337
2009-03-04 08:33:22 51°13.828 2°55.641 -999 0.059806 0.348911 -1.244337
2009-03-04 08:33:27 51°13.839 2°55.632 -999 0.059806 0.348918 -1.244337
2009-03-04 08:33:31 51°13.848 2°55.625 -999 0.059703 0.348305 -1.279161
2009-03-04 08:33:36 51°13.858 2°55.616 -999 0.059806 0.348931 -1.244337
2009-03-04 08:33:41 51°13.869 2°55.608 -999 0.059806 0.348931 -1.244337
2009-03-04 08:33:46 51°13.88 2°55.599 -999 0.059806 0.348931 -1.244337
2009-03-04 08:33:51 51°13.892 2°55.59 -999 0.059806 0.348938 -1.244337
2009-03-04 08:33:56 51°13.903 2°55.582 -999 0.059806 0.348945 -1.244337
2009-03-04 08:34:00 51°13.912 2°55.575 -999 0.059806 0.348952 -1.244337
2009-03-04 08:34:05 51°13.923 2°55.566 -999 0.059703 0.348339 -1.244337
2009-03-04 08:34:10 51°13.935 2°55.558 -999 0.059703 0.348345 -1.279161
2009-03-04 08:34:15 51°13.946 2°55.549 -999 0.059703 0.348345 -1.279161
2009-03-04 08:34:19 51°13.956 2°55.542 -999 0.059703 0.348352 -1.244337
2009-03-04 08:34:24 51°13.968 2°55.534 -999 0.059806 0.348985 -1.244337
2009-03-04 08:34:29 51°13.979 2°55.526 -999 0.059703 0.348372 -1.244337
2009-03-04 08:34:35 51°13.993 2°55.515 -999 0.059703 0.348379 -1.244337
2009-03-04 08:34:39 51°14.002 2°55.509 -999 0.059703 0.348379 -1.244337
2009-03-04 08:34:44 51°14.014 2°55.5 -999 0.059703 0.348379 -1.244337
2009-03-04 08:34:48 51°14.023 2°55.494 -999 0.059703 0.348386 -1.244337
2009-03-04 08:34:55 51°14.039 2°55.482 -999 0.059703 0.348386 -1.244337
2009-03-04 08:34:59 51°14.049 2°55.475 -999 0.059703 0.348392 -1.244337
2009-03-04 08:35:04 51°14.06 2°55.466 -999 0.059703 0.348392 -1.244337
2009-03-04 08:35:09 51°14.072 2°55.458 -999 0.059703 0.348392 -1.244337
2009-03-04 08:35:15 51°14.086 2°55.447 -999 0.059703 0.348406 -1.244337
2009-03-04 08:35:19 51°14.095 2°55.44 -999 0.059703 0.348406 -1.244337
2009-03-04 08:35:25 51°14.109 2°55.429 -999 0.059703 0.348413 -1.244337
2009-03-04 08:35:29 51°14.118 2°55.422 -999 0.059703 0.348419 -1.244337
2009-03-04 08:35:34 51°14.13 2°55.412 -999 0.059703 0.348433 -1.244337
2009-03-04 08:35:39 51°14.142 2°55.403 -999 0.059703 0.348433 -1.244337
2009-03-04 08:35:45 51°14.155 2°55.391 -999 0.059703 0.34844 -1.244337
2009-03-04 08:35:51 51°14.168 2°55.379 -999 0.059703 0.348446 -1.244337
2009-03-04 08:35:56 51°14.179 2°55.368 -999 0.059703 0.348453 -1.244337
2009-03-04 08:36:01 51°14.19 2°55.357 -999 0.059703 0.34846 -1.244337
2009-03-04 08:36:07 51°14.203 2°55.343 -999 0.059703 0.34846 -1.244337
2009-03-04 08:36:12 51°14.214 2°55.33 -999 0.059703 0.34846 -1.244337
2009-03-04 08:36:18 51°14.226 2°55.314 -999 0.059703 0.348466 -1.244337
2009-03-04 08:36:23 51°14.236 2°55.301 -999 0.059703 0.348473 -1.244337
2009-03-04 08:36:28 51°14.246 2°55.287 -999 0.059703 0.34848 -1.244337
2009-03-04 08:36:32 51°14.254 2°55.275 -999 0.059703 0.34848 -1.244337
2009-03-04 08:36:38 51°14.265 2°55.257 -999 0.059703 0.348487 -1.244337
2009-03-04 08:36:42 51°14.273 2°55.244 -999 0.059703 0.348487 -1.244337
2009-03-04 08:36:47 51°14.282 2°55.228 -999 0.059703 0.348493 -1.244337
2009-03-04 08:36:52 51°14.291 2°55.213 -999 0.059703 0.348493 -1.244337
2009-03-04 08:36:57 51°14.3 2°55.197 -999 0.059703 0.3485 -1.244337
2009-03-04 08:37:02 51°14.309 2°55.18 -999 0.059703 0.3485 -1.244337
2009-03-04 08:37:07 51°14.319 2°55.164 -999 0.059703 0.348507 -1.244337
2009-03-04 08:37:11 51°14.326 2°55.15 -999 0.059703 0.348507 -1.244337
2009-03-04 08:37:16 51°14.335 2°55.134 -999 0.059703 0.348507 -1.244337
2009-03-04 08:37:21 51°14.344 2°55.116 -999 0.059703 0.348514 -1.244337
2009-03-04 08:37:26 51°14.353 2°55.099 -999 0.059703 0.34852 -1.244337
2009-03-04 08:37:31 51°14.362 2°55.081 -999 0.059703 0.348534 -1.244337
2009-03-04 08:37:35 51°14.369 2°55.066 -999 0.059703 0.348534 -1.244337
2009-03-04 08:37:40 51°14.378 2°55.048 -999 0.059703 0.348534 -1.244337
2009-03-04 08:37:45 51°14.388 2°55.029 -999 0.059703 0.348541 -1.244337
2009-03-04 08:37:50 51°14.397 2°55.01 -999 0.059703 0.348541 -1.244337
2009-03-04 08:37:55 51°14.406 2°54.991 -999 0.059703 0.348547 -1.244337
2009-03-04 08:37:59 51°14.414 2°54.976 -999 0.059703 0.348547 -1.244337
2009-03-04 08:38:03 51°14.421 2°54.96 -999 0.059703 0.348561 -1.244337
2009-03-04 08:38:09 51°14.433 2°54.937 -999 0.059703 0.348561 -1.244337
2009-03-04 08:38:15 51°14.444 2°54.912 -999 0.059703 0.348567 -1.244337
2009-03-04 08:38:19 51°14.452 2°54.896 -999 0.059703 0.348574 -1.244337
2009-03-04 08:38:24 51°14.462 2°54.875 -999 0.059703 0.348581 -1.244337
2009-03-04 08:38:29 51°14.472 2°54.855 -999 0.059703 0.348601 -1.244337
2009-03-04 08:38:34 51°14.481 2°54.833 -999 0.059703 0.348615 -1.244337
2009-03-04 08:38:39 51°14.49 2°54.81 -999 0.059703 0.348615 -1.244337
2009-03-04 08:38:43 51°14.497 2°54.792 -999 0.059703 0.348615 -1.244337
2009-03-04 08:38:49 51°14.508 2°54.765 -999 0.059703 0.348615 -1.244337
2009-03-04 08:38:54 51°14.517 2°54.742 -999 0.059703 0.348621 -1.244337
2009-03-04 08:38:59 51°14.526 2°54.719 -999 0.059703 0.348621 -1.279161
2009-03-04 08:39:04 51°14.535 2°54.696 -999 0.059703 0.348621 -1.244337
2009-03-04 08:39:09 51°14.545 2°54.674 -999 0.059703 0.348621 -1.244337
2009-03-04 08:39:15 51°14.556 2°54.645 -999 0.059703 0.348621 -1.244337
2009-03-04 08:39:19 51°14.563 2°54.627 -999 0.059703 0.348621 -1.244337
2009-03-04 08:39:23 51°14.571 2°54.609 -999 0.059703 0.348635 -1.244337
2009-03-04 08:39:29 51°14.582 2°54.582 -999 0.059703 0.348642 -1.244337
2009-03-04 08:39:34 51°14.591 2°54.558 -999 0.059703 0.348655 -1.244337
2009-03-04 08:39:39 51°14.6 2°54.535 -999 0.059703 0.348669 -1.244337
2009-03-04 08:39:44 51°14.608 2°54.511 -999 0.059703 0.348669 -1.244337
2009-03-04 08:39:49 51°14.617 2°54.488 -999 0.059703 0.348675 -1.244337
2009-03-04 08:39:54 51°14.625 2°54.464 -999 0.059703 0.348682 -1.244337
2009-03-04 08:39:59 51°14.634 2°54.44 -999 0.059703 0.348689 -1.244337
2009-03-04 08:40:03 51°14.64 2°54.421 -999 0.059703 0.348702 -1.244337
2009-03-04 08:40:09 51°14.65 2°54.393 -999 0.059703 0.348702 -1.244337
2009-03-04 08:40:14 51°14.659 2°54.369 -999 0.059703 0.348709 -1.244337
2009-03-04 08:40:19 51°14.667 2°54.345 -999 0.059703 0.348722 -1.244337
2009-03-04 08:40:24 51°14.676 2°54.322 -999 0.059703 0.348729 -1.244337
2009-03-04 08:40:29 51°14.684 2°54.298 -999 0.059703 0.348729 -1.244337
2009-03-04 08:40:34 51°14.693 2°54.275 -999 0.059703 0.348743 -1.244337
2009-03-04 08:40:39 51°14.701 2°54.251 -999 0.059703 0.348743 -1.244337
2009-03-04 08:40:43 51°14.708 2°54.232 -999 0.059703 0.348736 -1.244337
2009-03-04 08:40:49 51°14.718 2°54.203 -999 0.059703 0.348743 -1.244337
2009-03-04 08:40:54 51°14.725 2°54.179 -999 0.059703 0.348743 -1.244337
2009-03-04 08:40:59 51°14.733 2°54.156 -999 0.059703 0.348749 -1.244337
2009-03-04 08:41:04 51°14.741 2°54.132 -999 0.059703 0.348756 -1.244337
2009-03-04 08:41:09 51°14.749 2°54.108 -999 0.059703 0.348756 -1.244337
2009-03-04 08:41:14 51°14.757 2°54.084 -999 0.059703 0.348763 -1.244337
2009-03-04 08:41:19 51°14.765 2°54.06 -999 0.059703 0.348776 -1.244337
2009-03-04 08:41:24 51°14.772 2°54.037 -999 0.059703 0.348783 -1.244337
2009-03-04 08:41:29 51°14.78 2°54.014 -999 0.059703 0.34879 -1.244337
2009-03-04 08:41:35 51°14.79 2°53.985 -999 0.059703 0.348797 -1.244337
2009-03-04 08:41:39 51°14.797 2°53.967 -999 0.059703 0.348797 -1.244337
2009-03-04 08:41:43 51°14.803 2°53.948 -999 0.059703 0.34881 -1.244337
2009-03-04 08:41:49 51°14.814 2°53.921 -999 0.059703 0.348817 -1.244337
2009-03-04 08:41:54 51°14.822 2°53.898 -999 0.059703 0.348824 -1.244337
2009-03-04 08:41:59 51°14.831 2°53.875 -999 0.059703 0.34883 -1.244337
2009-03-04 08:42:04 51°14.839 2°53.852 -999 0.059703 0.348844 -1.244337
2009-03-04 08:42:09 51°14.848 2°53.829 -999 0.059703 0.348844 -1.244337
2009-03-04 08:42:14 51°14.856 2°53.805 -999 0.059703 0.348857 -1.244337
2009-03-04 08:42:19 51°14.863 2°53.782 -999 0.059703 0.348857 -1.244337
2009-03-04 08:42:23 51°14.87 2°53.763 -999 0.059703 0.348871 -1.244337
2009-03-04 08:42:29 51°14.878 2°53.734 -999 0.059703 0.348871 -1.244337
2009-03-04 08:42:34 51°14.886 2°53.71 -999 0.059703 0.348884 -1.244337
2009-03-04 08:42:39 51°14.892 2°53.685 -999 0.059703 0.348884 -1.244337
2009-03-04 08:42:44 51°14.899 2°53.661 -999 0.059703 0.348884 -1.244337
2009-03-04 08:42:49 51°14.906 2°53.637 -999 0.059703 0.348898 -1.244337
2009-03-04 08:42:54 51°14.912 2°53.613 -999 0.059703 0.348905 -1.244337
2009-03-04 08:42:59 51°14.919 2°53.588 -999 0.059703 0.348918 -1.244337
2009-03-04 08:43:03 51°14.924 2°53.568 -999 0.059703 0.348918 -1.244337
2009-03-04 08:43:09 51°14.932 2°53.539 -999 0.059703 0.348925 -1.244337
2009-03-04 08:43:15 51°14.94 2°53.509 -999 0.059703 0.348925 -1.244337
2009-03-04 08:43:19 51°14.945 2°53.49 -999 0.059703 0.348932 -1.244337
2009-03-04 08:43:24 51°14.951 2°53.465 -999 0.059703 0.348945 -1.244337
2009-03-04 08:43:29 51°14.958 2°53.44 -999 0.059703 0.348959 -1.244337
2009-03-04 08:43:34 51°14.964 2°53.415 -999 0.059703 0.348965 -1.244337
2009-03-04 08:43:39 51°14.971 2°53.391 -999 0.059703 0.348965 -1.244337
2009-03-04 08:43:43 51°14.976 2°53.371 -999 0.059703 0.348972 -1.244337
2009-03-04 08:43:49 51°14.984 2°53.341 -999 0.059703 0.348979 -1.244337
2009-03-04 08:43:54 51°14.991 2°53.316 -999 0.059703 0.348992 -1.244337
2009-03-04 08:43:59 51°14.997 2°53.291 -999 0.059703 0.348992 -1.244337
2009-03-04 08:44:04 51°15.003 2°53.266 -999 0.059703 0.349006 -1.244337
2009-03-04 08:44:09 51°15.01 2°53.241 -999 0.059703 0.349006 -1.244337
2009-03-04 08:44:14 51°15.016 2°53.216 -999 0.059703 0.349019 -1.244337
2009-03-04 08:44:19 51°15.023 2°53.191 -999 0.059703 0.349026 -1.244337
2009-03-04 08:44:24 51°15.029 2°53.166 -999 0.059703 0.349033 -1.244337
2009-03-04 08:44:29 51°15.036 2°53.141 -999 0.059703 0.34904 -1.244337
2009-03-04 08:44:35 51°15.044 2°53.111 -999 0.059703 0.349053 -1.244337
2009-03-04 08:44:39 51°15.049 2°53.091 -999 0.059703 0.349053 -1.244337
2009-03-04 08:44:44 51°15.055 2°53.067 -999 0.059703 0.349067 -1.244337
2009-03-04 08:44:49 51°15.062 2°53.041 -999 0.059703 0.349074 -1.244337
2009-03-04 08:44:54 51°15.068 2°53.016 -999 0.059703 0.349087 -1.244337
2009-03-04 08:44:59 51°15.075 2°52.991 -999 0.059703 0.349094 -1.244337
2009-03-04 08:45:03 51°15.08 2°52.971 -999 0.059703 0.349101 -1.244337
2009-03-04 08:45:09 51°15.088 2°52.942 -999 0.059703 0.349101 -1.244337
2009-03-04 08:45:14 51°15.095 2°52.917 -999 0.059703 0.349107 -1.244337
2009-03-04 08:45:19 51°15.101 2°52.892 -999 0.059703 0.349114 -1.244337
2009-03-04 08:45:24 51°15.108 2°52.867 -999 0.059703 0.349128 -1.244337
2009-03-04 08:45:29 51°15.114 2°52.842 -999 0.059703 0.349134 -1.244337
2009-03-04 08:45:35 51°15.122 2°52.812 -999 0.059703 0.349141 -1.244337
2009-03-04 08:45:39 51°15.128 2°52.792 -999 0.059703 0.349141 -1.244337
2009-03-04 08:45:43 51°15.133 2°52.772 -999 0.059703 0.349161 -1.244337
2009-03-04 08:45:49 51°15.141 2°52.742 -999 0.059703 0.349168 -1.244337
2009-03-04 08:45:54 51°15.147 2°52.717 -999 0.059703 0.349175 -1.244337
2009-03-04 08:45:59 51°15.153 2°52.691 -999 0.059703 0.349188 -1.244337
2009-03-04 08:46:04 51°15.159 2°52.666 -999 0.059703 0.349202 -1.244337
2009-03-04 08:46:09 51°15.165 2°52.64 -999 0.059703 0.349202 -1.244337
2009-03-04 08:46:14 51°15.17 2°52.615 -999 0.059703 0.349209 -1.244337
2009-03-04 08:46:19 51°15.175 2°52.589 -999 0.059703 0.349216 -1.244337
2009-03-04 08:46:23 51°15.18 2°52.569 -999 0.059703 0.349222 -1.244337
2009-03-04 08:46:29 51°15.186 2°52.538 -999 0.059703 0.349229 -1.244337
2009-03-04 08:46:34 51°15.192 2°52.512 -999 0.059703 0.349243 -1.244337
2009-03-04 08:46:39 51°15.197 2°52.486 -999 0.059703 0.349243 -1.244337
2009-03-04 08:46:44 51°15.202 2°52.46 -999 0.059703 0.349249 -1.244337
2009-03-04 08:46:49 51°15.207 2°52.434 -999 0.059703 0.349256 -1.244337
2009-03-04 08:46:54 51°15.213 2°52.409 -999 0.059703 0.34927 -1.244337
2009-03-04 08:46:59 51°15.218 2°52.383 -999 0.059703 0.349276 -1.244337
2009-03-04 08:47:03 51°15.222 2°52.362 -999 0.059703 0.34929 -1.244337
2009-03-04 08:47:09 51°15.229 2°52.332 -999 0.059703 0.34929 -1.244337
2009-03-04 08:47:14 51°15.235 2°52.306 -999 0.059703 0.349297 -1.244337
2009-03-04 08:47:19 51°15.24 2°52.28 -999 0.059703 0.34931 -1.244337
2009-03-04 08:47:24 51°15.245 2°52.254 -999 0.059703 0.349317 -1.244337
2009-03-04 08:47:29 51°15.25 2°52.229 -999 0.059703 0.349324 -1.244337
2009-03-04 08:47:34 51°15.256 2°52.203 -999 0.059703 0.349337 -1.244337
2009-03-04 08:47:39 51°15.261 2°52.177 -999 0.059703 0.349337 -1.244337
2009-03-04 08:47:43 51°15.265 2°52.157 -999 0.059703 0.349337 -1.244337
2009-03-04 08:47:49 51°15.272 2°52.125 -999 0.059703 0.349351 -1.244337
2009-03-04 08:47:54 51°15.277 2°52.099 -999 0.059703 0.349351 -1.244337
2009-03-04 08:47:59 51°15.283 2°52.074 -999 0.059703 0.349364 -1.244337
2009-03-04 08:48:04 51°15.288 2°52.047 -999 0.059703 0.349378 -1.244337
2009-03-04 08:48:09 51°15.293 2°52.022 -999 0.059703 0.349378 -1.244337
2009-03-04 08:48:14 51°15.298 2°51.996 -999 0.059703 0.349385 -1.244337
2009-03-04 08:48:19 51°15.304 2°51.97 -999 0.059703 0.349398 -1.244337
2009-03-04 08:48:24 51°15.309 2°51.944 -999 0.059703 0.349405 -1.244337
2009-03-04 08:48:29 51°15.315 2°51.918 -999 0.059703 0.349425 -1.244337
2009-03-04 08:48:34 51°15.32 2°51.892 -999 0.059703 0.349432 -1.244337
2009-03-04 08:48:39 51°15.326 2°51.866 -999 0.059703 0.349432 -1.244337
2009-03-04 08:48:43 51°15.33 2°51.846 -999 0.059703 0.349425 -1.139864
2009-03-04 08:48:49 51°15.336 2°51.814 -999 0.06351 0.371373 -0.7568
2009-03-04 08:48:54 51°15.34 2°51.788 -999 0.064334 0.379783 -0.443383
2009-03-04 08:48:59 51°15.343 2°51.763 -999 0.321559 2.047551 3.317614
2009-03-04 08:49:04 51°15.345 2°51.736 -999 0.981447 6.911812 3.631031
2009-03-04 08:49:09 51°15.348 2°51.71 -999 0.981447 6.911812 3.631031
2009-03-04 08:49:14 51°15.349 2°51.684 -999 1.595611 12.311063 14.182719
2009-03-04 08:49:19 51°15.35 2°51.657 -999 2.216311 18.231131 18.535726
2009-03-04 08:49:23 51°15.35 2°51.636 -999 3.20471 28.674011 20.764465
2009-03-04 08:49:29 51°15.351 2°51.604 -999 3.371554 31.492155 21.356474
2009-03-04 08:49:34 51°15.35 2°51.577 -999 3.404604 32.55598 21.983307
2009-03-04 08:49:39 51°15.35 2°51.551 -999 3.404604 32.55598 21.983307
2009-03-04 08:49:44 51°15.35 2°51.524 -999 3.39073 32.861215 22.505668
2009-03-04 08:49:49 51°15.349 2°51.497 -999 3.381826 33.097436 22.644964
2009-03-04 08:49:54 51°15.348 2°51.47 -999 3.373957 33.289427 22.644964
2009-03-04 08:49:59 51°15.347 2°51.443 -999 3.359251 33.275158 22.679788
2009-03-04 08:50:03 51°15.346 2°51.422 -999 3.34931 33.294286 22.958381
2009-03-04 08:50:09 51°15.345 2°51.39 -999 3.337711 33.279716 22.993205
2009-03-04 08:50:14 51°15.345 2°51.363 -999 3.337711 33.279716 22.993205
2009-03-04 08:50:19 51°15.345 2°51.335 -999 3.329738 33.274067 23.236973
2009-03-04 08:50:24 51°15.344 2°51.308 -999 3.322282 33.263131 23.236973
2009-03-04 08:50:29 51°15.344 2°51.281 -999 3.300431 33.073717 23.480742
2009-03-04 08:50:35 51°15.344 2°51.249 -999 3.310269 33.22179 23.515566
2009-03-04 08:50:39 51°15.344 2°51.227 -999 3.310269 33.22179 23.515566
2009-03-04 08:50:43 51°15.344 2°51.205 -999 3.307784 33.223667 23.620038
2009-03-04 08:50:49 51°15.345 2°51.173 -999 3.300742 33.171066 23.72451
2009-03-04 08:50:54 51°15.345 2°51.146 -999 3.2995 33.17661 23.794158
2009-03-04 08:50:59 51°15.346 2°51.118 -999 3.298568 33.181929 24.037926
2009-03-04 08:51:03 51°15.347 2°51.096 -999 3.295979 33.171538 24.107575
2009-03-04 08:51:09 51°15.349 2°51.064 -999 3.295979 33.171538 24.107575
2009-03-04 08:51:14 51°15.35 2°51.037 -999 3.294633 33.162062 24.142399
2009-03-04 08:51:19 51°15.351 2°51.009 -999 3.294012 33.176408 24.629935
2009-03-04 08:51:24 51°15.353 2°50.982 -999 3.292666 33.168778 24.560287
2009-03-04 08:51:29 51°15.354 2°50.955 -999 3.290802 33.158139 24.873704
2009-03-04 08:51:34 51°15.356 2°50.928 -999 3.289766 33.15768 24.978176
2009-03-04 08:51:39 51°15.357 2°50.901 -999 3.289766 33.15768 24.978176
2009-03-04 08:51:45 51°15.359 2°50.868 -999 3.291423 33.188251 25.36124
2009-03-04 08:51:49 51°15.36 2°50.846 -999 3.292666 33.220713 25.396065
2009-03-04 08:51:54 51°15.361 2°50.819 -999 3.292356 33.232106 25.396065
2009-03-04 08:51:59 51°15.363 2°50.792 -999 3.291424 33.237482 25.500537
2009-03-04 08:52:03 51°15.364 2°50.77 -999 3.29277 33.271184 25.36124
2009-03-04 08:52:09 51°15.366 2°50.738 -999 3.293599 33.281399 25.500537
2009-03-04 08:52:15 51°15.368 2°50.705 -999 3.293599 33.281399 25.500537
2009-03-04 08:52:19 51°15.369 2°50.683 -999 3.294013 33.28977 25.605009
2009-03-04 08:52:24 51°15.371 2°50.656 -999 3.294531 33.300237 25.396065
2009-03-04 08:52:29 51°15.373 2°50.629 -999 3.296395 33.325801 25.36124
2009-03-04 08:52:35 51°15.375 2°50.597 -999 3.296292 33.331177 25.535361
2009-03-04 08:52:39 51°15.376 2°50.575 -999 3.296292 33.331177 25.535361
2009-03-04 08:52:43 51°15.378 2°50.553 -999 3.295567 33.323983 25.082648
2009-03-04 08:52:49 51°15.38 2°50.521 -999 3.298052 33.348116 25.221944
2009-03-04 08:52:54 51°15.383 2°50.494 -999 3.299088 33.358794 25.221944
2009-03-04 08:52:59 51°15.384 2°50.466 -999 3.299191 33.363695 25.36124
2009-03-04 08:53:04 51°15.386 2°50.439 -999 3.302402 33.403447 25.465713
2009-03-04 08:53:09 51°15.387 2°50.412 -999 3.302402 33.403447 25.465713
2009-03-04 08:53:14 51°15.39 2°50.385 -999 3.302091 33.402771 25.152296
2009-03-04 08:53:19 51°15.391 2°50.358 -999 3.303127 33.416263 25.256768
2009-03-04 08:53:23 51°15.393 2°50.337 -999 3.303437 33.418812 25.18712
2009-03-04 08:53:29 51°15.395 2°50.304 -999 3.30323 33.421173 25.221944
2009-03-04 08:53:34 51°15.397 2°50.277 -999 3.30292 33.418624 25.117472
2009-03-04 08:53:39 51°15.399 2°50.25 -999 3.304784 33.443294 25.013
2009-03-04 08:53:44 51°15.401 2°50.222 -999 3.304784 33.443294 25.013
2009-03-04 08:53:49 51°15.403 2°50.195 -999 3.303852 33.435646 24.873704
2009-03-04 08:53:54 51°15.405 2°50.168 -999 3.303437 33.430996 25.013
2009-03-04 08:53:59 51°15.406 2°50.141 -999 3.303334 33.429834 25.047824
2009-03-04 08:54:03 51°15.407 2°50.12 -999 3.303645 33.432383 24.83888
2009-03-04 08:54:09 51°15.409 2°50.087 -999 3.303645 33.432383 24.83888
2009-03-04 08:54:15 51°15.411 2°50.055 -999 3.304266 33.443109 24.769232
2009-03-04 08:54:19 51°15.413 2°50.033 -999 3.304887 33.452899 24.804056
2009-03-04 08:54:24 51°15.414 2°50.007 -999 3.30758 33.489706 24.83888
2009-03-04 08:54:30 51°15.417 2°49.974 -999 3.306751 33.476645 24.560287
2009-03-04 08:54:35 51°15.419 2°49.947 -999 3.305819 33.462425 24.664759
2009-03-04 08:54:39 51°15.421 2°49.926 -999 3.305819 33.462425 24.664759
2009-03-04 08:54:43 51°15.422 2°49.904 -999 3.308408 33.491493 24.699583
2009-03-04 08:54:49 51°15.425 2°49.872 -999 3.307373 33.477048 24.455815
2009-03-04 08:54:54 51°15.427 2°49.845 -999 3.308926 33.49167 24.212047
2009-03-04 08:54:59 51°15.43 2°49.819 -999 3.309651 33.49793 24.316519
2009-03-04 08:55:03 51°15.431 2°49.797 -999 3.311308 33.516533 24.212047
2009-03-04 08:55:09 51°15.433 2°49.766 -999 3.311308 33.516533 24.212047
2009-03-04 08:55:15 51°15.436 2°49.734 -999 3.31224 33.525117 24.07275
2009-03-04 08:55:19 51°15.437 2°49.712 -999 3.31835 33.5909 23.933454
2009-03-04 08:55:24 51°15.439 2°49.686 -999 3.321975 33.631607 23.794158
2009-03-04 08:55:28 51°15.441 2°49.664 -999 3.323943 33.650877 23.863806
2009-03-04 08:55:34 51°15.443 2°49.632 -999 3.324564 33.656913 23.933454
2009-03-04 08:55:39 51°15.444 2°49.606 -999 3.323839 33.651601 23.654862
2009-03-04 08:55:44 51°15.446 2°49.579 -999 3.323839 33.651601 23.654862
2009-03-04 08:55:49 51°15.448 2°49.552 -999 3.326636 33.682066 23.689686
2009-03-04 08:55:54 51°15.45 2°49.526 -999 3.327671 33.689921 23.341445
2009-03-04 08:55:59 51°15.452 2°49.499 -999 3.329017 33.703154 23.271797
2009-03-04 08:56:03 51°15.453 2°49.477 -999 3.330467 33.71566 23.236973
2009-03-04 08:56:09 51°15.455 2°49.445 -999 3.330467 33.71566 23.236973
2009-03-04 08:56:14 51°15.457 2°49.419 -999 3.331089 33.715079 22.923557
2009-03-04 08:56:19 51°15.459 2°49.392 -999 3.332435 33.720749 22.749436
2009-03-04 08:56:24 51°15.46 2°49.365 -999 3.335128 33.740584 22.644964
2009-03-04 08:56:29 51°15.462 2°49.338 -999 3.330881 33.685377 22.366372
2009-03-04 08:56:34 51°15.464 2°49.311 -999 3.338856 33.769199 22.227076
2009-03-04 08:56:39 51°15.466 2°49.284 -999 3.338856 33.769199 22.227076
2009-03-04 08:56:43 51°15.467 2°49.263 -999 3.341652 33.79396 22.192252
2009-03-04 08:56:49 51°15.469 2°49.231 -999 3.346106 33.835418 21.983307
2009-03-04 08:56:54 51°15.471 2°49.205 -999 3.356048 33.937518 22.018131
2009-03-04 08:56:59 51°15.473 2°49.178 -999 3.35843 33.955706 22.018131
2009-03-04 08:57:04 51°15.474 2°49.151 -999 3.361641 33.985085 21.983307
2009-03-04 08:57:09 51°15.476 2°49.124 -999 3.361641 33.985085 21.983307
2009-03-04 08:57:15 51°15.478 2°49.092 -999 3.364645 34.011184 21.739539
2009-03-04 08:57:19 51°15.479 2°49.07 -999 3.365888 34.022276 21.774363
2009-03-04 08:57:23 51°15.48 2°49.049 -999 3.36682 34.02893 21.600243
2009-03-04 08:57:29 51°15.482 2°49.017 -999 3.367855 34.039599 21.739539
2009-03-04 08:57:34 51°15.483 2°48.99 -999 3.36972 34.058613 21.565419
2009-03-04 08:57:39 51°15.485 2°48.963 -999 3.370445 34.063892 21.495771
2009-03-04 08:57:44 51°15.486 2°48.937 -999 3.370445 34.063892 21.495771
2009-03-04 08:57:49 51°15.488 2°48.911 -999 3.370652 34.065264 21.286826
2009-03-04 08:57:54 51°15.489 2°48.884 -999 3.370859 34.06854 21.252002
2009-03-04 08:57:59 51°15.491 2°48.857 -999 3.371998 34.079418 21.112706
2009-03-04 08:58:03 51°15.493 2°48.836 -999 3.371895 34.076352 20.903762
2009-03-04 08:58:09 51°15.496 2°48.804 -999 3.371895 34.076352 20.903762
2009-03-04 08:58:15 51°15.498 2°48.772 -999 3.372723 34.084695 20.834113
2009-03-04 08:58:19 51°15.501 2°48.751 -999 3.373656 34.095153 20.764465
2009-03-04 08:58:23 51°15.503 2°48.73 -999 3.376141 34.12209 21.043058
2009-03-04 08:58:29 51°15.505 2°48.698 -999 3.374899 34.108145 21.32165
2009-03-04 08:58:35 51°15.508 2°48.666 -999 3.374277 34.103078 21.426122
2009-03-04 08:58:39 51°15.51 2°48.645 -999 3.374277 34.103078 21.426122
2009-03-04 08:58:44 51°15.512 2°48.619 -999 3.37262 34.084486 21.495771
2009-03-04 08:58:50 51°15.515 2°48.587 -999 3.374174 34.104775 21.252002
2009-03-04 08:58:55 51°15.517 2°48.561 -999 3.37117 34.072026 21.286826
2009-03-04 08:58:59 51°15.519 2°48.539 -999 3.373034 34.09485 20.97341
2009-03-04 08:59:03 51°15.521 2°48.518 -999 3.373552 34.101614 20.938586
2009-03-04 08:59:09 51°15.524 2°48.486 -999 3.373552 34.101614 20.938586
2009-03-04 08:59:14 51°15.526 2°48.459 -999 3.372309 34.089572 20.799289
2009-03-04 08:59:19 51°15.529 2°48.432 -999 3.370134 34.070879 20.868938
2009-03-04 08:59:24 51°15.531 2°48.405 -999 3.372309 34.099103 20.903762
2009-03-04 08:59:29 51°15.534 2°48.379 -999 3.37117 34.090127 20.834113
2009-03-04 08:59:34 51°15.537 2°48.353 -999 3.370341 34.084638 20.764465
2009-03-04 08:59:39 51°15.54 2°48.326 -999 3.370341 34.084638 20.764465
2009-03-04 08:59:43 51°15.542 2°48.305 -999 3.368995 34.07524 20.903762
2009-03-04 08:59:49 51°15.545 2°48.272 -999 3.367752 34.06605 21.217178
2009-03-04 08:59:54 51°15.547 2°48.246 -999 3.36682 34.059395 21.391298
2009-03-04 08:59:59 51°15.549 2°48.219 -999 3.364749 34.038039 21.391298
2009-03-04 09:00:03 51°15.551 2°48.197 -999 3.364749 34.040896 21.32165
2009-03-04 09:00:09 51°15.554 2°48.165 -999 3.364749 34.040896 21.32165
2009-03-04 09:00:15 51°15.556 2°48.134 -999 3.364749 34.043754 21.426122
2009-03-04 09:00:19 51°15.558 2°48.112 -999 3.364127 34.036775 21.426122
2009-03-04 09:00:24 51°15.561 2°48.085 -999 3.362988 34.024933 21.217178
2009-03-04 09:00:29 51°15.563 2°48.058 -999 3.365163 34.051266 21.043058
2009-03-04 09:00:34 51°15.566 2°48.031 -999 3.364542 34.04238 21.043058
2009-03-04 09:00:39 51°15.568 2°48.005 -999 3.364542 34.04238 21.043058
2009-03-04 09:00:45 51°15.572 2°47.973 -999 3.366509 34.06353 20.764465
2009-03-04 09:00:49 51°15.574 2°47.951 -999 3.366717 34.064903 20.799289
2009-03-04 09:00:54 51°15.576 2°47.924 -999 3.368063 34.078119 20.938586
2009-03-04 09:00:59 51°15.578 2°47.898 -999 3.368477 34.080865 20.97341
2009-03-04 09:01:03 51°15.58 2°47.876 -999 3.369409 34.089427 20.868938
2009-03-04 09:01:09 51°15.583 2°47.844 -999 3.369409 34.089427 20.868938
2009-03-04 09:01:15 51°15.586 2°47.812 -999 3.368581 34.079168 21.112706
2009-03-04 09:01:19 51°15.588 2°47.79 -999 3.368995 34.085728 20.97341
2009-03-04 09:01:24 51°15.59 2°47.763 -999 3.368788 34.086262 20.938586
2009-03-04 09:01:28 51°15.592 2°47.742 -999 3.368063 34.076212 21.077882
2009-03-04 09:01:35 51°15.595 2°47.705 -999 3.36972 34.092917 20.799289
2009-03-04 09:01:39 51°15.597 2°47.683 -999 3.36972 34.092917 20.799289
2009-03-04 09:01:44 51°15.6 2°47.657 -999 3.368892 34.082657 20.799289
2009-03-04 09:01:49 51°15.602 2°47.63 -999 3.369513 34.089636 21.008234
2009-03-04 09:01:55 51°15.605 2°47.598 -999 3.371067 34.107085 20.938586
2009-03-04 09:01:59 51°15.607 2°47.577 -999 3.370134 34.094708 20.868938
2009-03-04 09:02:03 51°15.609 2°47.555 -999 3.371481 34.106967 20.799289
2009-03-04 09:02:09 51°15.612 2°47.523 -999 3.371481 34.106967 20.799289
2009-03-04 09:02:14 51°15.615 2°47.497 -999 3.373035 34.122506 20.868938
2009-03-04 09:02:19 51°15.617 2°47.47 -999 3.371792 34.106641 20.694817
2009-03-04 09:02:24 51°15.619 2°47.444 -999 3.373967 34.130111 20.799289
2009-03-04 09:02:29 51°15.621 2°47.417 -999 3.375417 34.146396 20.799289
2009-03-04 09:02:34 51°15.623 2°47.39 -999 3.374174 34.131483 20.729641
2009-03-04 09:02:39 51°15.626 2°47.363 -999 3.374174 34.131483 20.729641
2009-03-04 09:02:43 51°15.627 2°47.342 -999 3.37521 34.141205 20.659993
2009-03-04 09:02:49 51°15.63 2°47.31 -999 3.376452 34.153252 20.520697
2009-03-04 09:02:54 51°15.633 2°47.283 -999 3.373552 34.117825 20.520697
2009-03-04 09:02:59 51°15.636 2°47.257 -999 3.377074 34.15832 20.555521
2009-03-04 09:03:04 51°15.638 2°47.23 -999 3.377178 34.160439 20.451049
2009-03-04 09:03:09 51°15.64 2°47.203 -999 3.377178 34.160439 20.451049
2009-03-04 09:03:14 51°15.642 2°47.177 -999 3.378006 34.169744 20.416225
2009-03-04 09:03:19 51°15.644 2°47.15 -999 3.378835 34.178094 20.381401
2009-03-04 09:03:23 51°15.646 2°47.129 -999 3.376349 34.149224 20.172456
2009-03-04 09:03:29 51°15.649 2°47.097 -999 3.376142 34.146898 20.207281
2009-03-04 09:03:35 51°15.652 2°47.064 -999 3.376038 34.14669 19.963512
2009-03-04 09:03:39 51°15.653 2°47.043 -999 3.376038 34.14669 19.963512
2009-03-04 09:03:44 51°15.655 2°47.016 -999 3.376763 34.154831 19.998336
2009-03-04 09:03:49 51°15.657 2°46.989 -999 3.37666 34.154623 19.68492
2009-03-04 09:03:55 51°15.66 2°46.957 -999 3.378938 34.180213 19.824216
2009-03-04 09:03:59 51°15.661 2°46.935 -999 3.378213 34.173026 19.68492
2009-03-04 09:04:04 51°15.663 2°46.908 -999 3.377488 34.168706 19.441151
2009-03-04 09:04:09 51°15.665 2°46.881 -999 3.377488 34.168706 19.441151
2009-03-04 09:04:15 51°15.668 2°46.849 -999 3.374174 34.135302 19.371503
2009-03-04 09:04:19 51°15.67 2°46.827 -999 3.37666 34.166089 19.162559
2009-03-04 09:04:24 51°15.672 2°46.8 -999 3.375417 34.153083 19.092911
2009-03-04 09:04:29 51°15.675 2°46.773 -999 3.37376 34.137333 18.953615
2009-03-04 09:04:34 51°15.677 2°46.746 -999 3.372103 34.124447 18.849142
2009-03-04 09:04:39 51°15.68 2°46.719 -999 3.370445 34.109649 18.918791
2009-03-04 09:04:43 51°15.681 2°46.698 -999 3.370445 34.109649 18.918791
2009-03-04 09:04:49 51°15.684 2°46.665 -999 3.368995 34.097176 19.058087
2009-03-04 09:04:54 51°15.686 2°46.638 -999 3.367131 34.080047 18.953615
2009-03-04 09:04:59 51°15.688 2°46.611 -999 3.365681 34.069478 18.74467
2009-03-04 09:05:03 51°15.69 2°46.59 -999 3.363299 34.052247 18.849142
2009-03-04 09:05:09 51°15.693 2°46.558 -999 3.363299 34.052247 18.849142
2009-03-04 09:05:15 51°15.696 2°46.526 -999 3.361435 34.037969 18.74467
2009-03-04 09:05:19 51°15.698 2°46.504 -999 3.359778 34.026016 18.814318
2009-03-04 09:05:24 51°15.701 2°46.477 -999 3.35812 34.013106 18.849142
2009-03-04 09:05:29 51°15.703 2°46.45 -999 3.35636 33.99903 18.988439
2009-03-04 09:05:35 51°15.706 2°46.419 -999 3.354703 33.98802 19.092911
2009-03-04 09:05:39 51°15.708 2°46.397 -999 3.354703 33.98802 19.092911
2009-03-04 09:05:44 51°15.711 2°46.37 -999 3.353356 33.976691 19.162559
2009-03-04 09:05:49 51°15.714 2°46.343 -999 3.351699 33.961866 19.127735
2009-03-04 09:05:55 51°15.717 2°46.311 -999 3.35056 33.952862 19.371503
2009-03-04 09:05:59 51°15.721 2°46.29 -999 3.349006 33.939198 19.336679
2009-03-04 09:06:03 51°15.725 2°46.269 -999 3.348281 33.935804 19.68492
2009-03-04 09:06:09 51°15.731 2°46.237 -999 3.348281 33.935804 19.68492
2009-03-04 09:06:14 51°15.737 2°46.212 -999 3.346521 33.920758 19.85904
2009-03-04 09:06:19 51°15.744 2°46.187 -999 3.346003 33.91874 19.928688
2009-03-04 09:06:23 51°15.749 2°46.166 -999 3.34476 33.90571 20.381401
2009-03-04 09:06:29 51°15.758 2°46.136 -999 3.344346 33.902001 20.625169
2009-03-04 09:06:34 51°15.765 2°46.112 -999 3.344242 33.90369 20.938586
2009-03-04 09:06:39 51°15.773 2°46.087 -999 3.344242 33.90369 20.938586
2009-03-04 09:06:44 51°15.78 2°46.062 -999 3.343414 33.89532 21.182354
2009-03-04 09:06:49 51°15.788 2°46.038 -999 3.343103 33.894678 21.286826
2009-03-04 09:06:54 51°15.797 2°46.014 -999 3.343103 33.896581 21.530595
2009-03-04 09:06:59 51°15.806 2°45.99 -999 3.342275 33.889161 21.565419
2009-03-04 09:07:03 51°15.814 2°45.972 -999 3.342378 33.892229 21.635067
2009-03-04 09:07:09 51°15.826 2°45.945 -999 3.342378 33.892229 21.635067
2009-03-04 09:07:14 51°15.836 2°45.923 -999 3.34155 33.882906 21.704715
2009-03-04 09:07:19 51°15.847 2°45.901 -999 3.131868 31.536055 21.844011
2009-03-04 09:07:23 51°15.856 2°45.884 -999 3.342171 33.892753 21.878835
2009-03-04 09:07:29 51°15.868 2°45.858 -999 3.342275 33.892967 21.600243
2009-03-04 09:07:35 51°15.882 2°45.833 -999 3.342585 33.89456 21.530595
2009-03-04 09:07:39 51°15.89 2°45.816 -999 3.342585 33.89456 21.530595
2009-03-04 09:07:44 51°15.902 2°45.795 -999 3.342792 33.896891 21.635067
2009-03-04 09:07:49 51°15.913 2°45.774 -999 3.343 33.899222 21.600243
2009-03-04 09:07:54 51°15.924 2°45.753 -999 3.343103 33.901339 21.460946
2009-03-04 09:07:59 51°15.936 2°45.734 -999 3.34331 33.902718 21.460946
2009-03-04 09:08:03 51°15.944 2°45.717 -999 3.343621 33.906215 21.460946
2009-03-04 09:08:09 51°15.959 2°45.693 -999 3.344242 33.913208 21.460946
2009-03-04 09:08:14 51°15.97 2°45.672 -999 3.344242 33.913208 21.460946
2009-03-04 09:08:19 51°15.981 2°45.652 -999 3.34476 33.918083 21.669891
2009-03-04 09:08:23 51°15.991 2°45.636 -999 3.346107 33.929426 21.600243
2009-03-04 09:08:29 51°16.005 2°45.612 -999 3.347971 33.944688 21.878835
2009-03-04 09:08:35 51°16.019 2°45.589 -999 3.349214 33.952956 22.227076
2009-03-04 09:08:39 51°16.028 2°45.573 -999 3.349214 33.952956 22.227076
2009-03-04 09:08:44 51°16.039 2°45.552 -999 3.351181 33.969378 22.540492
2009-03-04 09:08:49 51°16.05 2°45.533 -999 3.353253 33.986961 22.714612
2009-03-04 09:08:54 51°16.062 2°45.512 -999 3.355428 34.005706 22.78426
2009-03-04 09:08:59 51°16.073 2°45.492 -999 3.356981 34.018412 22.993205
2009-03-04 09:09:03 51°16.082 2°45.476 -999 3.358846 34.035564 23.062853
2009-03-04 09:09:09 51°16.096 2°45.452 -999 3.358846 34.035564 23.062853
2009-03-04 09:09:14 51°16.107 2°45.431 -999 3.360503 34.04943 23.028029
2009-03-04 09:09:19 51°16.119 2°45.412 -999 3.361642 34.059379 23.132501
2009-03-04 09:09:24 51°16.131 2°45.392 -999 3.362574 34.066043 23.236973
2009-03-04 09:09:29 51°16.142 2°45.372 -999 3.364231 34.080858 23.097677
2009-03-04 09:09:34 51°16.154 2°45.352 -999 3.365371 34.090804 23.028029
2009-03-04 09:09:39 51°16.165 2°45.332 -999 3.365371 34.090804 23.028029
2009-03-04 09:09:45 51°16.179 2°45.308 -999 3.366613 34.100958 22.888733
2009-03-04 09:09:49 51°16.188 2°45.292 -999 3.367753 34.110902 22.714612
2009-03-04 09:09:54 51°16.199 2°45.271 -999 3.368892 34.119889 22.644964
2009-03-04 09:09:59 51°16.211 2°45.251 -999 3.369824 34.126545 22.296724
2009-03-04 09:10:04 51°16.222 2°45.231 -999 3.371378 34.140187 22.2619
2009-03-04 09:10:09 51°16.234 2°45.211 -999 3.372517 34.14917 22.192252
2009-03-04 09:10:14 51°16.245 2°45.19 -999 3.372517 34.14917 22.192252
2009-03-04 09:10:19 51°16.255 2°45.169 -999 3.373346 34.157528 22.157428
2009-03-04 09:10:23 51°16.265 2°45.153 -999 3.375106 34.175408 21.983307
2009-03-04 09:10:29 51°16.278 2°45.129 -999 3.375831 34.181644 22.018131
2009-03-04 09:10:34 51°16.289 2°45.108 -999 3.376867 34.191373 22.087779
2009-03-04 09:10:39 51°16.301 2°45.087 -999 3.376867 34.191373 22.087779
2009-03-04 09:10:44 51°16.312 2°45.067 -999 3.378317 34.204801 21.913659
2009-03-04 09:10:49 51°16.323 2°45.047 -999 3.379871 34.22035 21.983307
2009-03-04 09:10:55 51°16.337 2°45.022 -999 3.381114 34.231447 21.948483
2009-03-04 09:10:59 51°16.346 2°45.006 -999 3.381424 34.233024 22.087779
2009-03-04 09:11:03 51°16.354 2°44.99 -999 3.382667 34.245078 22.227076
2009-03-04 09:11:09 51°16.368 2°44.965 -999 3.382667 34.245078 22.227076
2009-03-04 09:11:14 51°16.379 2°44.944 -999 3.383082 34.245901 22.331548
2009-03-04 09:11:19 51°16.391 2°44.924 -999 3.384117 34.255626 22.43602
2009-03-04 09:11:24 51°16.402 2°44.903 -999 3.38536 34.267678 22.505668
2009-03-04 09:11:29 51°16.413 2°44.883 -999 3.386085 34.273909 22.61014
2009-03-04 09:11:34 51°16.424 2°44.863 -999 3.387328 34.28596 22.61014
2009-03-04 09:11:39 51°16.435 2°44.843 -999 3.38795 34.290066 22.540492
2009-03-04 09:11:43 51°16.445 2°44.826 -999 3.38795 34.290066 22.540492
2009-03-04 09:11:49 51°16.458 2°44.801 -999 3.388675 34.297255 22.819085
2009-03-04 09:11:54 51°16.469 2°44.781 -999 3.388468 34.293968 22.575316
2009-03-04 09:11:59 51°16.48 2°44.759 -999 3.390125 34.310673 22.749436
2009-03-04 09:12:04 51°16.491 2°44.739 -999 3.390643 34.314574 22.679788
2009-03-04 09:12:09 51°16.502 2°44.718 -999 3.390643 34.314574 22.679788
2009-03-04 09:12:14 51°16.513 2°44.697 -999 3.390954 34.317106 22.78426
2009-03-04 09:12:19 51°16.525 2°44.676 -999 3.391264 34.319638 22.749436
2009-03-04 09:12:23 51°16.534 2°44.659 -999 3.392611 34.33381 22.78426
2009-03-04 09:12:29 51°16.547 2°44.634 -999 3.3923 34.330318 22.78426
2009-03-04 09:12:35 51°16.561 2°44.609 -999 3.393336 34.341958 22.993205
2009-03-04 09:12:39 51°16.57 2°44.592 -999 3.393336 34.341958 22.993205
2009-03-04 09:12:44 51°16.581 2°44.572 -999 3.393543 34.342365 23.132501
2009-03-04 09:12:49 51°16.592 2°44.55 -999 3.393854 34.344897 22.958381
2009-03-04 09:12:55 51°16.606 2°44.526 -999 3.393854 34.343936 23.132501
2009-03-04 09:12:59 51°16.615 2°44.509 -999 3.394993 34.355779 23.271797
2009-03-04 09:13:03 51°16.624 2°44.492 -999 3.394786 34.355373 23.341445
2009-03-04 09:13:09 51°16.637 2°44.466 -999 3.394786 34.355373 23.341445
2009-03-04 09:13:15 51°16.651 2°44.442 -999 3.39489 34.357498 23.585214
2009-03-04 09:13:19 51°16.66 2°44.424 -999 3.394786 34.356333 23.863806
2009-03-04 09:13:23 51°16.669 2°44.408 -999 3.3952 34.360029 23.89863
2009-03-04 09:13:29 51°16.683 2°44.383 -999 3.395615 34.362763 24.003102
2009-03-04 09:13:35 51°16.696 2°44.357 -999 3.395097 34.358865 23.89863
2009-03-04 09:13:39 51°16.705 2°44.34 -999 3.395925 34.367216 23.794158
2009-03-04 09:13:44 51°16.716 2°44.319 -999 3.395925 34.367216 23.794158
2009-03-04 09:13:48 51°16.725 2°44.302 -999 3.396132 34.369544 23.585214
2009-03-04 09:13:54 51°16.738 2°44.277 -999 3.395925 34.366255 23.202149
2009-03-04 09:13:59 51°16.749 2°44.255 -999 3.396029 34.366458 22.993205
2009-03-04 09:14:04 51°16.76 2°44.234 -999 3.39665 34.372481 22.714612
2009-03-04 09:14:09 51°16.77 2°44.212 -999 3.39665 34.372481 22.714612
2009-03-04 09:14:14 51°16.781 2°44.191 -999 3.397272 34.376582 22.679788
2009-03-04 09:14:19 51°16.792 2°44.17 -999 3.397272 34.375621 22.749436
2009-03-04 09:14:24 51°16.803 2°44.149 -999 3.396857 34.370965 22.644964
2009-03-04 09:14:29 51°16.814 2°44.128 -999 3.396961 34.37309 22.853909
2009-03-04 09:14:34 51°16.825 2°44.107 -999 3.396443 34.371114 22.888733
2009-03-04 09:14:39 51°16.835 2°44.086 -999 3.396443 34.371114 22.888733
2009-03-04 09:14:44 51°16.846 2°44.065 -999 3.395511 34.364482 22.819085
2009-03-04 09:14:49 51°16.857 2°44.044 -999 3.394786 34.360177 22.923557
2009-03-04 09:14:54 51°16.868 2°44.023 -999 3.393336 34.347722 22.888733
2009-03-04 09:14:59 51°16.878 2°44.002 -999 3.39344 34.353691 22.958381
2009-03-04 09:15:04 51°16.889 2°43.981 -999 3.392093 34.339514 23.028029
2009-03-04 09:15:09 51°16.9 2°43.96 -999 3.392197 34.343561 22.993205
2009-03-04 09:15:15 51°16.913 2°43.935 -999 3.392197 34.343561 22.993205
2009-03-04 09:15:19 51°16.921 2°43.917 -999 3.391368 34.337128 23.028029
2009-03-04 09:15:24 51°16.933 2°43.897 -999 3.389918 34.322746 23.097677
2009-03-04 09:15:28 51°16.941 2°43.879 -999 3.383807 34.255967 22.888733
2009-03-04 09:15:34 51°16.954 2°43.854 -999 3.378628 34.197763 23.097677
2009-03-04 09:15:39 51°16.964 2°43.832 -999 3.378628 34.197763 23.097677
2009-03-04 09:15:44 51°16.975 2°43.812 -999 3.387536 34.300763 22.853909
2009-03-04 09:15:49 51°16.986 2°43.79 -999 3.387536 34.302683 23.028029
2009-03-04 09:15:54 51°16.997 2°43.769 -999 3.388364 34.312 22.888733
2009-03-04 09:15:59 51°17.007 2°43.747 -999 3.38795 34.307342 22.923557
2009-03-04 09:16:04 51°17.018 2°43.726 -999 3.387225 34.29919 22.888733
2009-03-04 09:16:09 51°17.029 2°43.705 -999 3.387225 34.29919 22.888733
2009-03-04 09:16:14 51°17.04 2°43.684 -999 3.387225 34.30015 22.888733
2009-03-04 09:16:19 51°17.051 2°43.663 -999 3.387018 34.29974 23.202149
2009-03-04 09:16:23 51°17.06 2°43.646 -999 3.386707 34.298167 23.202149
2009-03-04 09:16:29 51°17.072 2°43.621 -999 3.386086 34.291178 23.028029
2009-03-04 09:16:34 51°17.083 2°43.599 -999 3.38391 34.267681 23.236973
2009-03-04 09:16:39 51°17.094 2°43.579 -999 3.38391 34.267681 23.236973
2009-03-04 09:16:44 51°17.105 2°43.558 -999 3.385775 34.288644 22.923557
2009-03-04 09:16:49 51°17.116 2°43.538 -999 3.384739 34.276997 22.78426
2009-03-04 09:16:55 51°17.129 2°43.512 -999 3.38505 34.280491 23.028029
2009-03-04 09:16:59 51°17.138 2°43.496 -999 3.383393 34.262817 22.993205
2009-03-04 09:17:04 51°17.148 2°43.474 -999 3.383496 34.263981 23.028029
2009-03-04 09:17:10 51°17.161 2°43.449 -999 3.384118 34.271929 23.028029
2009-03-04 09:17:15 51°17.172 2°43.428 -999 3.384118 34.271929 23.028029
2009-03-04 09:17:19 51°17.181 2°43.411 -999 3.384014 34.272683 23.202149
2009-03-04 09:17:24 51°17.192 2°43.39 -999 3.383807 34.271313 23.202149
2009-03-04 09:17:29 51°17.203 2°43.369 -999 3.381425 34.246443 23.515566
2009-03-04 09:17:35 51°17.215 2°43.343 -999 3.382046 34.256309 23.689686
2009-03-04 09:17:39 51°17.224 2°43.326 -999 3.382046 34.256309 23.689686
2009-03-04 09:17:44 51°17.235 2°43.305 -999 3.383082 34.269876 23.55039
2009-03-04 09:17:49 51°17.245 2°43.284 -999 3.381321 34.252951 23.933454
2009-03-04 09:17:54 51°17.256 2°43.262 -999 3.381218 34.254664 24.177223
2009-03-04 09:17:59 51°17.267 2°43.241 -999 3.379353 34.23753 24.212047
2009-03-04 09:18:04 51°17.278 2°43.22 -999 3.379457 34.241573 24.525463
2009-03-04 09:18:09 51°17.289 2°43.199 -999 3.379457 34.241573 24.525463
2009-03-04 09:18:14 51°17.3 2°43.178 -999 3.379353 34.244245 24.769232
2009-03-04 09:18:19 51°17.311 2°43.156 -999 3.379457 34.251168 24.83888
2009-03-04 09:18:23 51°17.319 2°43.139 -999 3.377385 34.232656 25.082648
2009-03-04 09:18:29 51°17.332 2°43.114 -999 3.376143 34.224425 25.256768
2009-03-04 09:18:34 51°17.343 2°43.092 -999 3.3749 34.214274 25.465713
2009-03-04 09:18:39 51°17.355 2°43.072 -999 3.3749 34.214274 25.465713
2009-03-04 09:18:45 51°17.368 2°43.046 -999 3.375728 34.230318 25.535361
2009-03-04 09:18:49 51°17.376 2°43.029 -999 3.375521 34.234706 25.709481
2009-03-04 09:18:54 51°17.388 2°43.008 -999 3.373243 34.213849 25.709481
2009-03-04 09:18:59 51°17.398 2°42.986 -999 3.373346 34.223656 25.744305
2009-03-04 09:19:05 51°17.411 2°42.961 -999 3.371586 34.209584 25.570185
2009-03-04 09:19:09 51°17.42 2°42.944 -999 3.372621 34.226054 25.674657
2009-03-04 09:19:14 51°17.431 2°42.923 -999 3.372621 34.226054 25.674657
2009-03-04 09:19:19 51°17.442 2°42.903 -999 3.372 34.223856 25.674657
2009-03-04 09:19:24 51°17.453 2°42.882 -999 3.369618 34.201817 25.605009
2009-03-04 09:19:28 51°17.461 2°42.866 -999 3.369825 34.209914 25.605009
2009-03-04 09:19:35 51°17.477 2°42.835 -999 3.368582 34.199749 25.813953
2009-03-04 09:19:39 51°17.486 2°42.819 -999 3.368582 34.199749 25.813953
2009-03-04 09:19:44 51°17.497 2°42.798 -999 3.368168 34.200843 25.744305
2009-03-04 09:19:48 51°17.506 2°42.78 -999 3.368997 34.214989 25.465713
2009-03-04 09:19:55 51°17.522 2°42.752 -999 3.367132 34.196853 25.639833
2009-03-04 09:19:59 51°17.53 2°42.734 -999 3.367857 34.208872 25.535361
2009-03-04 09:20:04 51°17.542 2°42.714 -999 3.369825 34.234912 25.430889
2009-03-04 09:20:09 51°17.552 2°42.691 -999 3.369825 34.234912 25.430889
2009-03-04 09:20:14 51°17.564 2°42.671 -999 3.37024 34.241509 25.291592
2009-03-04 09:20:19 51°17.574 2°42.648 -999 3.370343 34.246528 25.047824
2009-03-04 09:20:23 51°17.583 2°42.632 -999 3.370343 34.249416 24.943352
2009-03-04 09:20:29 51°17.596 2°42.607 -999 3.370343 34.253268 24.83888
2009-03-04 09:20:34 51°17.606 2°42.584 -999 3.370447 34.256363 24.664759
2009-03-04 09:20:39 51°17.618 2°42.564 -999 3.370654 34.260627 24.490639
2009-03-04 09:20:43 51°17.625 2°42.546 -999 3.370654 34.260627 24.490639
2009-03-04 09:20:49 51°17.639 2°42.521 -999 3.370861 34.264891 24.420991
2009-03-04 09:20:54 51°17.649 2°42.5 -999 3.370861 34.267782 24.07275
2009-03-04 09:20:59 51°17.66 2°42.478 -999 3.371172 34.273217 24.003102
2009-03-04 09:21:04 51°17.67 2°42.456 -999 3.371483 34.276724 23.863806
2009-03-04 09:21:09 51°17.681 2°42.436 -999 3.371483 34.276724 23.863806
2009-03-04 09:21:15 51°17.694 2°42.41 -999 3.371379 34.276519 23.933454
2009-03-04 09:21:19 51°17.703 2°42.393 -999 3.371379 34.277483 23.620038
2009-03-04 09:21:24 51°17.713 2°42.371 -999 3.372001 34.285462 23.585214
2009-03-04 09:21:30 51°17.726 2°42.345 -999 3.372208 34.28973 23.132501
2009-03-04 09:21:35 51°17.737 2°42.324 -999 3.372311 34.291864 22.923557
2009-03-04 09:21:39 51°17.745 2°42.306 -999 3.372311 34.291864 22.923557
2009-03-04 09:21:44 51°17.756 2°42.285 -999 3.372519 34.296132 22.853909
2009-03-04 09:21:49 51°17.768 2°42.264 -999 3.372622 34.297301 22.679788
2009-03-04 09:21:55 51°17.781 2°42.239 -999 3.372829 34.298675 22.43602
2009-03-04 09:21:59 51°17.79 2°42.222 -999 3.37314 34.302183 22.192252
2009-03-04 09:22:04 51°17.8 2°42.2 -999 3.373036 34.301014 22.087779
2009-03-04 09:22:09 51°17.812 2°42.18 -999 3.373036 34.301014 22.087779
2009-03-04 09:22:15 51°17.825 2°42.154 -999 3.37314 34.302183 21.844011
2009-03-04 09:22:19 51°17.834 2°42.138 -999 3.373658 34.30803 21.669891
2009-03-04 09:22:24 51°17.845 2°42.117 -999 3.373865 34.310369 21.635067
2009-03-04 09:22:29 51°17.856 2°42.095 -999 3.373969 34.310573 21.286826
2009-03-04 09:22:35 51°17.87 2°42.07 -999 3.374383 34.31525 21.008234
2009-03-04 09:22:39 51°17.879 2°42.053 -999 3.374797 34.318962 20.799289
2009-03-04 09:22:44 51°17.89 2°42.032 -999 3.374797 34.318962 20.799289
2009-03-04 09:22:49 51°17.901 2°42.012 -999 3.37459 34.315658 20.381401
2009-03-04 09:22:54 51°17.912 2°41.99 -999 3.375419 34.325013 20.102808
2009-03-04 09:22:59 51°17.923 2°41.97 -999 3.375522 34.327148 20.03316
2009-03-04 09:23:04 51°17.934 2°41.949 -999 3.375937 34.33086 19.789392
2009-03-04 09:23:08 51°17.943 2°41.932 -999 3.375937 34.33086 19.789392
2009-03-04 09:23:15 51°17.958 2°41.902 -999 3.376351 34.334572 19.406327
2009-03-04 09:23:19 51°17.967 2°41.885 -999 3.376454 34.33381 19.580448
2009-03-04 09:23:24 51°17.978 2°41.864 -999 3.376558 34.334014 19.162559
2009-03-04 09:23:29 51°17.989 2°41.843 -999 3.376351 34.330709 19.023263
2009-03-04 09:23:35 51°18.002 2°41.818 -999 3.377076 34.338894 18.918791
2009-03-04 09:23:39 51°18.011 2°41.801 -999 3.377076 34.338894 18.918791
2009-03-04 09:23:44 51°18.022 2°41.78 -999 3.376765 34.335386 18.605374
2009-03-04 09:23:49 51°18.033 2°41.758 -999 3.377283 34.341233 18.605374
2009-03-04 09:23:55 51°18.046 2°41.734 -999 3.376869 34.336556 18.361606
2009-03-04 09:23:59 51°18.055 2°41.717 -999 3.376869 34.33559 18.640198
2009-03-04 09:24:04 51°18.065 2°41.696 -999 3.377076 34.337929 18.500902
2009-03-04 09:24:10 51°18.078 2°41.671 -999 3.376972 34.336759 18.39643
2009-03-04 09:24:15 51°18.089 2°41.65 -999 3.376972 34.336759 18.39643
2009-03-04 09:24:19 51°18.098 2°41.633 -999 3.377179 34.339098 18.39643
2009-03-04 09:24:24 51°18.108 2°41.612 -999 3.377076 34.337929 18.257134
2009-03-04 09:24:29 51°18.119 2°41.591 -999 3.376765 34.336352 18.257134
2009-03-04 09:24:35 51°18.133 2°41.566 -999 3.376454 34.33381 18.326782
2009-03-04 09:24:39 51°18.141 2°41.549 -999 3.376765 34.337318 18.291958
2009-03-04 09:24:44 51°18.152 2°41.527 -999 3.376765 34.337318 18.291958
2009-03-04 09:24:49 51°18.163 2°41.507 -999 3.376351 34.333606 18.222309
2009-03-04 09:24:55 51°18.176 2°41.482 -999 3.376144 34.331268 18.187485
2009-03-04 09:24:59 51°18.185 2°41.466 -999 3.376454 34.335742 18.187485
2009-03-04 09:25:04 51°18.195 2°41.444 -999 3.376247 34.333403 17.943717
2009-03-04 09:25:08 51°18.204 2°41.428 -999 3.376247 34.333403 17.943717
2009-03-04 09:25:14 51°18.217 2°41.403 -999 3.375937 34.328929 17.978541
2009-03-04 09:25:19 51°18.227 2°41.381 -999 3.376247 34.332437 17.978541
2009-03-04 09:25:24 51°18.238 2°41.361 -999 3.37604 34.331064 18.048189
2009-03-04 09:25:30 51°18.251 2°41.335 -999 3.37604 34.332995 18.048189
2009-03-04 09:25:35 51°18.262 2°41.315 -999 3.375419 34.32791 17.978541
2009-03-04 09:25:39 51°18.27 2°41.297 -999 3.375419 34.32791 17.978541
2009-03-04 09:25:44 51°18.282 2°41.276 -999 3.375212 34.326537 18.013365
2009-03-04 09:25:49 51°18.291 2°41.253 -999 3.375937 34.334724 18.083013
2009-03-04 09:25:55 51°18.305 2°41.229 -999 3.375626 34.331215 18.048189
2009-03-04 09:25:59 51°18.313 2°41.212 -999 3.375522 34.331977 17.943717
2009-03-04 09:26:04 51°18.324 2°41.191 -999 3.375419 34.330808 18.013365
2009-03-04 09:26:09 51°18.334 2°41.169 -999 3.375004 34.326129 18.013365
2009-03-04 09:26:15 51°18.348 2°41.145 -999 3.375004 34.326129 18.013365
2009-03-04 09:26:19 51°18.356 2°41.127 -999 3.374797 34.32379 18.187485
2009-03-04 09:26:24 51°18.368 2°41.107 -999 3.374797 34.321859 17.874069
2009-03-04 09:26:28 51°18.376 2°41.089 -999 3.375004 34.324198 17.943717
2009-03-04 09:26:35 51°18.392 2°41.06 -999 3.375108 34.326333 18.013365
2009-03-04 09:26:39 51°18.4 2°41.042 -999 3.375108 34.326333 18.013365
2009-03-04 09:26:44 51°18.411 2°41.021 -999 3.374901 34.323994 17.874069
2009-03-04 09:26:49 51°18.422 2°41 -999 3.374383 34.319112 17.978541
2009-03-04 09:26:54 51°18.433 2°40.978 -999 3.374487 34.321247 18.083013
2009-03-04 09:26:59 51°18.444 2°40.958 -999 3.373762 34.31306 18.117837
2009-03-04 09:27:04 51°18.454 2°40.935 -999 3.373347 34.308382 17.978541
2009-03-04 09:27:09 51°18.466 2°40.915 -999 3.373347 34.308382 17.978541
2009-03-04 09:27:15 51°18.478 2°40.889 -999 3.373554 34.311687 18.117837
2009-03-04 09:27:19 51°18.486 2°40.871 -999 3.373347 34.311279 18.187485
2009-03-04 09:27:24 51°18.498 2°40.851 -999 3.372933 34.308531 18.257134
2009-03-04 09:27:29 51°18.508 2°40.829 -999 3.372726 34.308123 18.152661
2009-03-04 09:27:35 51°18.522 2°40.804 -999 3.372415 34.306544 18.257134
2009-03-04 09:27:39 51°18.531 2°40.786 -999 3.372415 34.306544 18.257134
2009-03-04 09:27:44 51°18.542 2°40.765 -999 3.371897 34.301661 18.222309
2009-03-04 09:27:50 51°18.556 2°40.741 -999 3.371379 34.294847 18.222309
2009-03-04 09:27:55 51°18.567 2°40.72 -999 3.371794 34.300491 18.466078
2009-03-04 09:27:59 51°18.576 2°40.704 -999 3.370862 34.289964 18.500902
2009-03-04 09:28:04 51°18.588 2°40.684 -999 3.370137 34.282741 18.57055
2009-03-04 09:28:09 51°18.6 2°40.664 -999 3.370551 34.286455 18.291958
2009-03-04 09:28:15 51°18.615 2°40.641 -999 3.370551 34.286455 18.291958
2009-03-04 09:28:19 51°18.624 2°40.625 -999 3.3488 34.040954 18.326782
2009-03-04 09:28:24 51°18.637 2°40.606 -999 3.371587 34.298152 18.222309
2009-03-04 09:28:30 51°18.651 2°40.583 -999 3.37169 34.300287 18.222309
2009-03-04 09:28:35 51°18.664 2°40.564 -999 3.370344 34.283151 18.361606
2009-03-04 09:28:39 51°18.673 2°40.549 -999 3.370344 34.283151 18.361606
2009-03-04 09:28:44 51°18.686 2°40.53 -999 3.37169 34.298356 18.361606
2009-03-04 09:28:48 51°18.695 2°40.514 -999 3.372415 34.305579 18.326782
2009-03-04 09:28:55 51°18.712 2°40.487 -999 3.372208 34.304205 18.187485
2009-03-04 09:28:59 51°18.723 2°40.472 -999 3.372104 34.304001 18.39643
2009-03-04 09:29:04 51°18.734 2°40.451 -999 3.372208 34.306136 18.083013
2009-03-04 09:29:09 51°18.747 2°40.434 -999 3.372208 34.306136 18.083013
2009-03-04 09:29:14 51°18.758 2°40.412 -999 3.373037 34.314529 18.257134
2009-03-04 09:29:19 51°18.771 2°40.394 -999 3.372933 34.310462 18.187485
2009-03-04 09:29:24 51°18.783 2°40.374 -999 3.37459 34.327246 18.083013
2009-03-04 09:29:29 51°18.795 2°40.355 -999 3.375937 34.341487 17.874069
2009-03-04 09:29:34 51°18.807 2°40.334 -999 3.376869 34.349115 17.699949
2009-03-04 09:29:39 51°18.819 2°40.314 -999 3.377387 34.352064 17.630301
2009-03-04 09:29:44 51°18.831 2°40.294 -999 3.377387 34.352064 17.630301
2009-03-04 09:29:48 51°18.839 2°40.278 -999 3.379873 34.376269 17.525828
2009-03-04 09:29:55 51°18.856 2°40.249 -999 3.381115 34.388371 17.351708
2009-03-04 09:29:59 51°18.865 2°40.233 -999 3.380183 34.37591 17.073116
2009-03-04 09:30:04 51°18.877 2°40.213 -999 3.381323 34.384907 16.864171
2009-03-04 09:30:09 51°18.888 2°40.192 -999 3.381323 34.384907 16.864171
2009-03-04 09:30:15 51°18.903 2°40.17 -999 3.383394 34.40346 16.794523
2009-03-04 09:30:19 51°18.912 2°40.153 -999 3.382876 34.392777 16.515931
2009-03-04 09:30:24 51°18.924 2°40.134 -999 3.385362 34.415035 16.341811
2009-03-04 09:30:29 51°18.936 2°40.113 -999 3.387226 34.430274 16.028394
2009-03-04 09:30:35 51°18.95 2°40.089 -999 3.389401 34.447081 15.889098
2009-03-04 09:30:39 51°18.959 2°40.073 -999 3.389401 34.447081 15.889098